AAL811 YPAD-PANC

Flight info

Callsign AAL811
Flight time N/A
Altitude 35000
Route UPROT Y27 IGIPA Y46 EMTID Y27 BN/N0496F360 Q67 BIXAD/N0495F350 A598 IKODA/N0498F370 A598 MAJ/N0492F390 DCT 11N172E 16N173E/N0492F380 DCT NATIE/N0487F390 DCT 25N175E 30N177E DCT 35E80/N0479F410 DCT 40N178W 45N175W 49N171W DCT DUT J115 TUCKS DCT SNAAG NEELL7
Aircraft B788/H-L/5005

Departure

Time 2026-04-29 20:46
Airport Adelaide International Airport (YPAD)

Arrival

Time N/A
Airport Ted Stevens Anchorage International Airport (PANC)
Time Latitude Longitude Altitude Speed Heading
2026-04-29 20:45 -34.95820 138.51770 33 ft 0 kts 50°
2026-04-29 20:45 -34.95783 138.51824 33 ft 38 kts 50°
2026-04-29 20:46 -34.95422 138.52349 33 ft 120 kts 50°
2026-04-29 20:46 -34.94742 138.53339 140 ft 170 kts 50°
2026-04-29 20:46 -34.94034 138.54352 1285 ft 152 kts 49°
2026-04-29 20:46 -34.93588 138.54998 1922 ft 151 kts 49°
2026-04-29 20:47 -34.92899 138.55999 2552 ft 157 kts 47°
2026-04-29 20:47 -34.92162 138.57062 2984 ft 172 kts 46°
2026-04-29 20:47 -34.91076 138.58618 3428 ft 193 kts 44°
2026-04-29 20:47 -34.90481 138.59467 3593 ft 203 kts 44°
2026-04-29 20:48 -34.89510 138.60853 3820 ft 222 kts 45°
2026-04-29 20:48 -34.88480 138.62327 4153 ft 239 kts 45°
2026-04-29 20:48 -34.87358 138.63934 4637 ft 253 kts 46°
2026-04-29 20:48 -34.86211 138.65585 5255 ft 260 kts 46°
2026-04-29 20:49 -34.85028 138.67289 5925 ft 265 kts 46°
2026-04-29 20:49 -34.83823 138.69022 6579 ft 270 kts 46°
2026-04-29 20:49 -34.82621 138.70780 7229 ft 275 kts 47°
2026-04-29 20:49 -34.81400 138.72596 7884 ft 279 kts 47°
2026-04-29 20:50 -34.80168 138.74430 8525 ft 282 kts 47°
2026-04-29 20:50 -34.79030 138.76418 9260 ft 290 kts 54°
2026-04-29 20:50 -34.78068 138.78594 9901 ft 293 kts 59°
2026-04-29 20:50 -34.77145 138.80824 10430 ft 301 kts 61°
2026-04-29 20:51 -34.76191 138.83178 10703 ft 318 kts 62°
2026-04-29 20:51 -34.75192 138.85654 10980 ft 334 kts 62°
2026-04-29 20:51 -34.74141 138.88260 11251 ft 351 kts 62°
2026-04-29 20:51 -34.73059 138.90949 11545 ft 366 kts 60°
2026-04-29 20:52 -34.71912 138.93788 11816 ft 383 kts 60°
2026-04-29 20:52 -34.70706 138.96758 12149 ft 396 kts 60°
2026-04-29 20:52 -34.69469 138.99805 12615 ft 406 kts 60°
2026-04-29 20:52 -34.68209 139.02910 13146 ft 413 kts 60°
2026-04-29 20:53 -34.66928 139.06068 13703 ft 420 kts 60°
2026-04-29 20:53 -34.65623 139.09279 14269 ft 425 kts 60°
2026-04-29 20:53 -34.64306 139.12513 14865 ft 429 kts 60°
2026-04-29 20:53 -34.62976 139.15776 15480 ft 433 kts 60°
2026-04-29 20:54 -34.60277 139.22389 16634 ft 441 kts 60°
2026-04-29 20:54 -34.58906 139.25745 17166 ft 445 kts 60°
2026-04-29 20:54 -34.57600 139.29131 17688 ft 450 kts 63°
2026-04-29 20:55 -34.56384 139.32628 18409 ft 449 kts 63°
2026-04-29 20:55 -34.55218 139.36125 19251 ft 445 kts 64°
2026-04-29 20:55 -34.54073 139.39636 19724 ft 450 kts 64°
2026-04-29 20:55 -34.52926 139.43204 20163 ft 455 kts 65°
2026-04-29 20:56 -34.51777 139.46808 20580 ft 461 kts 65°
2026-04-29 20:56 -34.50629 139.50418 21007 ft 465 kts 65°
2026-04-29 20:56 -34.49462 139.54095 21459 ft 469 kts 65°
2026-04-29 20:56 -34.48284 139.57804 21918 ft 472 kts 65°
2026-04-29 20:57 -34.47094 139.61541 22343 ft 476 kts 65°
2026-04-29 20:57 -34.45904 139.65282 22791 ft 478 kts 65°
2026-04-29 20:57 -34.44696 139.69064 23133 ft 483 kts 65°
2026-04-29 20:57 -34.43477 139.72880 23449 ft 488 kts 65°
2026-04-29 20:58 -34.42249 139.76719 23829 ft 491 kts 65°
2026-04-29 20:58 -34.41010 139.80585 24262 ft 493 kts 65°
2026-04-29 20:58 -34.39764 139.84470 24652 ft 496 kts 65°
2026-04-29 20:58 -34.38510 139.88376 25081 ft 498 kts 65°
2026-04-29 20:59 -34.37252 139.92291 25482 ft 500 kts 65°
2026-04-29 20:59 -34.35985 139.96226 25862 ft 502 kts 65°
2026-04-29 20:59 -34.34716 140.00165 26228 ft 504 kts 65°
2026-04-29 20:59 -34.33449 140.04087 26599 ft 506 kts 65°
2026-04-29 21:00 -34.32168 140.08049 26994 ft 508 kts 65°
2026-04-29 21:00 -34.30875 140.12045 27399 ft 510 kts 65°
2026-04-29 21:00 -34.29577 140.16050 27814 ft 512 kts 65°
2026-04-29 21:00 -34.28273 140.20069 28226 ft 514 kts 65°
2026-04-29 21:01 -34.26962 140.24101 28637 ft 516 kts 65°
2026-04-29 21:01 -34.25642 140.28157 29057 ft 519 kts 65°
2026-04-29 21:01 -34.24319 140.32219 29553 ft 519 kts 65°
2026-04-29 21:01 -34.22991 140.36285 30089 ft 519 kts 66°
2026-04-29 21:02 -34.21684 140.40283 30623 ft 518 kts 66°
2026-04-29 21:02 -34.20360 140.44333 31148 ft 517 kts 66°
2026-04-29 21:02 -34.19040 140.48366 31645 ft 516 kts 66°
2026-04-29 21:02 -34.17718 140.52402 32102 ft 516 kts 66°
2026-04-29 21:03 -34.16397 140.56424 32546 ft 515 kts 65°
2026-04-29 21:03 -34.15074 140.60448 32979 ft 515 kts 65°
2026-04-29 21:03 -34.13749 140.64470 33409 ft 515 kts 65°
2026-04-29 21:03 -34.12425 140.68486 33830 ft 515 kts 65°
2026-04-29 21:04 -34.11096 140.72509 34242 ft 515 kts 65°
2026-04-29 21:04 -34.09771 140.76517 34634 ft 515 kts 65°
2026-04-29 21:04 -34.08456 140.80491 34846 ft 517 kts 65°
2026-04-29 21:04 -34.07118 140.84525 34972 ft 517 kts 65°
2026-04-29 21:05 -34.05787 140.88536 34983 ft 515 kts 65°
2026-04-29 21:05 -34.03137 140.96506 34992 ft 508 kts 65°
2026-04-29 21:06 -34.00495 141.04428 35006 ft 510 kts 65°
2026-04-29 21:06 -33.97838 141.12373 34998 ft 510 kts 65°
2026-04-29 21:07 -33.95185 141.20293 34996 ft 509 kts 65°
2026-04-29 21:07 -33.92523 141.28219 35007 ft 510 kts 65°
2026-04-29 21:08 -33.89843 141.36158 34992 ft 515 kts 66°
2026-04-29 21:08 -33.87131 141.44192 35006 ft 518 kts 66°
2026-04-29 21:09 -33.84420 141.52211 34996 ft 517 kts 66°
2026-04-29 21:09 -33.81711 141.60199 35064 ft 515 kts 66°
2026-04-29 21:09 -33.80351 141.64199 35198 ft 518 kts 66°
2026-04-29 21:10 -33.79002 141.68161 35207 ft 519 kts 66°
2026-04-29 21:10 -33.76271 141.76167 35221 ft 516 kts 65°
2026-04-29 21:11 -33.73579 141.84170 35233 ft 515 kts 66°
2026-04-29 21:11 -33.70937 141.92150 35227 ft 511 kts 66°
2026-04-29 21:12 -33.68309 142.00094 35231 ft 513 kts 66°
2026-04-29 21:12 -33.65672 142.08048 35231 ft 512 kts 66°
2026-04-29 21:13 -33.63053 142.15929 35222 ft 511 kts 66°
2026-04-29 21:13 -33.60409 142.23868 35236 ft 512 kts 66°
2026-04-29 21:14 -33.57757 142.31802 35226 ft 510 kts 66°
2026-04-29 21:14 -33.55113 142.39700 35227 ft 509 kts 66°
2026-04-29 21:15 -33.52477 142.47556 35236 ft 511 kts 66°
2026-04-29 21:15 -33.49817 142.55460 35222 ft 510 kts 66°
2026-04-29 21:16 -33.47160 142.63335 35316 ft 508 kts 66°
2026-04-29 21:16 -33.44489 142.71231 35433 ft 512 kts 66°
2026-04-29 21:17 -33.41815 142.79119 35441 ft 510 kts 66°
2026-04-29 21:17 -33.39153 142.86950 35432 ft 505 kts 66°
2026-04-29 21:18 -33.36514 142.94697 35453 ft 507 kts 66°
2026-04-29 21:18 -33.33841 143.02521 35454 ft 508 kts 66°
2026-04-29 21:19 -33.31167 143.10332 35440 ft 506 kts 66°
2026-04-29 21:19 -33.28507 143.18083 35463 ft 507 kts 65°
2026-04-29 21:20 -33.25820 143.25893 35532 ft 507 kts 65°
2026-04-29 21:20 -33.23126 143.33697 35544 ft 509 kts 66°
2026-04-29 21:21 -33.20410 143.41552 35547 ft 511 kts 66°
2026-04-29 21:21 -33.17704 143.49367 35541 ft 509 kts 66°
2026-04-29 21:22 -33.14977 143.57218 35558 ft 513 kts 66°
2026-04-29 21:22 -33.12242 143.65070 35554 ft 512 kts 66°
2026-04-29 21:23 -33.09517 143.72877 35548 ft 511 kts 66°
2026-04-29 21:23 -33.06772 143.80720 35561 ft 513 kts 66°
2026-04-29 21:24 -33.04018 143.88572 35550 ft 513 kts 66°
2026-04-29 21:24 -33.01276 143.96370 35553 ft 512 kts 66°
2026-04-29 21:25 -32.98113 144.03948 35577 ft 511 kts 58°
2026-04-29 21:25 -32.94325 144.11137 35548 ft 510 kts 56°
2026-04-29 21:26 -32.90514 144.18273 35557 ft 510 kts 56°
2026-04-29 21:26 -32.86760 144.25400 35556 ft 511 kts 56°
2026-04-29 21:27 -32.83599 144.31441 35537 ft 516 kts 56°
2026-04-29 21:27 -32.79165 144.39882 35553 ft 518 kts 57°
2026-04-29 21:28 -32.75327 144.47184 35523 ft 521 kts 58°
2026-04-29 21:28 -32.71490 144.54480 35488 ft 518 kts 58°
2026-04-29 21:29 -32.67668 144.61731 35467 ft 517 kts 58°
2026-04-29 21:29 -32.64484 144.67758 35460 ft 519 kts 58°
2026-04-29 21:30 -32.60015 144.76200 35472 ft 519 kts 57°
2026-04-29 21:30 -32.56785 144.82285 35464 ft 522 kts 58°
2026-04-29 21:31 -32.52938 144.89523 35461 ft 522 kts 58°
2026-04-29 21:31 -32.49063 144.96802 35472 ft 522 kts 58°
2026-04-29 21:32 -32.45176 145.04088 35461 ft 522 kts 58°
2026-04-29 21:32 -32.41288 145.11360 35463 ft 523 kts 57°
2026-04-29 21:33 -32.37419 145.18584 35471 ft 522 kts 57°
2026-04-29 21:33 -32.33535 145.25821 35457 ft 521 kts 57°
2026-04-29 21:34 -32.29626 145.33087 35471 ft 524 kts 58°
2026-04-29 21:34 -32.25727 145.40325 35464 ft 523 kts 58°
2026-04-29 21:35 -32.21820 145.47567 35460 ft 523 kts 57°
2026-04-29 21:35 -32.17877 145.54861 35474 ft 527 kts 57°
2026-04-29 21:36 -32.13931 145.62140 35458 ft 525 kts 57°
2026-04-29 21:36 -32.09996 145.69387 35467 ft 525 kts 57°
2026-04-29 21:37 -32.06037 145.76666 35468 ft 526 kts 57°
2026-04-29 21:37 -32.02104 145.83882 35458 ft 526 kts 57°
2026-04-29 21:38 -31.98141 145.91143 35472 ft 526 kts 57°
2026-04-29 21:38 -31.94171 145.98401 35462 ft 526 kts 57°
2026-04-29 21:39 -31.90201 146.05645 35463 ft 526 kts 57°
2026-04-29 21:39 -31.86248 146.12842 35472 ft 527 kts 57°
2026-04-29 21:40 -31.82273 146.20069 35458 ft 526 kts 57°
2026-04-29 21:40 -31.78293 146.27290 35470 ft 526 kts 57°
2026-04-29 21:41 -31.74316 146.34490 35464 ft 524 kts 57°
2026-04-29 21:41 -31.70319 146.41715 35466 ft 529 kts 57°
2026-04-29 21:42 -31.66345 146.48913 35468 ft 527 kts 54°
2026-04-29 21:42 -31.62325 146.56122 35459 ft 527 kts 57°
2026-04-29 21:43 -31.58308 146.63326 35473 ft 528 kts 57°
2026-04-29 21:43 -31.54296 146.70538 35461 ft 527 kts 57°
2026-04-29 21:44 -31.50300 146.77698 35465 ft 527 kts 57°
2026-04-29 21:44 -31.46287 146.84870 35468 ft 526 kts 57°
2026-04-29 21:45 -31.42274 146.92031 35458 ft 525 kts 57°
2026-04-29 21:45 -31.38249 146.99197 35472 ft 527 kts 57°
2026-04-29 21:46 -31.34221 147.06358 35462 ft 526 kts 57°
2026-04-29 21:46 -31.30196 147.13498 35464 ft 526 kts 57°
2026-04-29 21:47 -31.26159 147.20648 35471 ft 527 kts 57°
2026-04-29 21:47 -31.22149 147.27738 35458 ft 525 kts 57°
2026-04-29 21:48 -31.18117 147.34852 35469 ft 525 kts 57°
2026-04-29 21:48 -31.14074 147.41972 35467 ft 526 kts 57°
2026-04-29 21:49 -31.10040 147.49063 35458 ft 525 kts 57°
2026-04-29 21:49 -31.05986 147.56177 35472 ft 526 kts 57°
2026-04-29 21:50 -31.01932 147.63278 35462 ft 525 kts 57°
2026-04-29 21:50 -30.97871 147.70379 35463 ft 525 kts 57°
2026-04-29 21:51 -30.93834 147.77425 35472 ft 526 kts 57°
2026-04-29 21:51 -30.87723 147.88067 35460 ft 526 kts 56°
2026-04-29 21:52 -30.83635 147.95167 35473 ft 527 kts 56°
2026-04-29 21:52 -30.79575 148.02208 35460 ft 527 kts 56°
2026-04-29 21:53 -30.75463 148.09325 35466 ft 526 kts 56°
2026-04-29 21:53 -30.71401 148.16344 35470 ft 527 kts 56°
2026-04-29 21:54 -30.67293 148.23432 35459 ft 528 kts 56°
2026-04-29 21:54 -30.63184 148.30504 35471 ft 528 kts 56°
2026-04-29 21:55 -30.59073 148.37566 35463 ft 527 kts 56°
2026-04-29 21:55 -30.54968 148.44609 35462 ft 527 kts 56°
2026-04-29 21:56 -30.50849 148.51662 35472 ft 528 kts 56°
2026-04-29 21:56 -30.46734 148.58697 35458 ft 526 kts 55°
2026-04-29 21:57 -30.42623 148.65721 35470 ft 531 kts 54°
2026-04-29 21:57 -30.38477 148.72766 35463 ft 527 kts 55°
2026-04-29 21:58 -30.34352 148.79784 35463 ft 527 kts 55°
2026-04-29 21:58 -30.30223 148.86797 35472 ft 528 kts 55°
2026-04-29 21:59 -30.26084 148.93812 35457 ft 527 kts 55°
2026-04-29 21:59 -30.21947 149.00810 35469 ft 528 kts 55°
2026-04-29 22:00 -30.17784 149.07837 35468 ft 529 kts 55°
2026-04-29 22:00 -30.13623 149.14853 35458 ft 528 kts 55°
2026-04-29 22:01 -30.09489 149.21810 35472 ft 529 kts 55°
2026-04-29 22:01 -30.05315 149.28821 35464 ft 528 kts 55°
2026-04-29 22:02 -30.01143 149.35817 35473 ft 529 kts 55°
2026-04-29 22:02 -29.96992 149.42765 35490 ft 529 kts 55°
2026-04-29 22:03 -29.92812 149.49750 35488 ft 529 kts 55°
2026-04-29 22:03 -29.88634 149.56721 35481 ft 528 kts 55°
2026-04-29 22:04 -29.84448 149.63692 35495 ft 529 kts 55°
2026-04-29 22:04 -29.80247 149.70677 35483 ft 528 kts 55°
2026-04-29 22:05 -29.76053 149.77638 35488 ft 528 kts 55°
2026-04-29 22:06 -29.69778 149.88029 35489 ft 530 kts 55°
2026-04-29 22:06 -29.65570 149.94985 35482 ft 529 kts 55°
2026-04-29 22:07 -29.61354 150.01941 35496 ft 530 kts 55°
2026-04-29 22:07 -29.57131 150.08902 35496 ft 530 kts 55°
2026-04-29 22:08 -29.53206 150.16042 35491 ft 529 kts 59°
2026-04-29 22:08 -29.49495 150.23357 35500 ft 530 kts 60°
2026-04-29 22:09 -29.45907 150.30751 35489 ft 530 kts 61°
2026-04-29 22:09 -29.42348 150.38171 35495 ft 530 kts 61°
2026-04-29 22:10 -29.38788 150.45581 35499 ft 530 kts 61°
2026-04-29 22:10 -29.35244 150.52938 35488 ft 529 kts 61°
2026-04-29 22:11 -29.31679 150.60323 35501 ft 530 kts 61°
2026-04-29 22:11 -29.28100 150.67721 35495 ft 530 kts 61°
2026-04-29 22:12 -29.24538 150.75077 35487 ft 528 kts 61°
2026-04-29 22:12 -29.20947 150.82458 35501 ft 533 kts 61°
2026-04-29 22:13 -29.17341 150.89870 35491 ft 532 kts 60°
2026-04-29 22:13 -29.14353 150.96001 35474 ft 531 kts 60°
2026-04-29 22:14 -29.10744 151.03396 35442 ft 531 kts 60°
2026-04-29 22:14 -29.07140 151.10765 35423 ft 532 kts 60°
2026-04-29 22:15 -29.03520 151.18155 35414 ft 532 kts 60°
2026-04-29 22:15 -28.99897 151.25537 35421 ft 532 kts 60°
2026-04-29 22:16 -28.96274 151.32907 35413 ft 532 kts 60°
2026-04-29 22:16 -28.92642 151.40280 35409 ft 532 kts 60°
2026-04-29 22:17 -28.89032 151.47597 35416 ft 533 kts 60°
2026-04-29 22:17 -28.85394 151.54956 35401 ft 532 kts 60°
2026-04-29 22:18 -28.81204 151.61866 35395 ft 530 kts 47°
2026-04-29 22:18 -28.75984 151.67840 35416 ft 532 kts 43°
2026-04-29 22:19 -28.70656 151.73665 35395 ft 530 kts 43°
2026-04-29 22:19 -28.65379 151.79541 35401 ft 530 kts 43°
2026-04-29 22:20 -28.60126 151.85446 35404 ft 532 kts 44°
2026-04-29 22:20 -28.54866 151.91369 35389 ft 531 kts 44°
2026-04-29 22:21 -28.49646 151.97236 35397 ft 531 kts 44°
2026-04-29 22:21 -28.44384 152.03139 35396 ft 532 kts 44°
2026-04-29 22:22 -28.39129 152.09025 35386 ft 530 kts 44°
2026-04-29 22:22 -28.33856 152.14923 35397 ft 532 kts 44°
2026-04-29 22:23 -28.28586 152.20809 35383 ft 531 kts 44°
2026-04-29 22:23 -28.23328 152.26673 35388 ft 532 kts 43°
2026-04-29 22:24 -28.18032 152.32570 35390 ft 534 kts 43°
2026-04-29 22:24 -28.12770 152.38421 35377 ft 532 kts 43°
2026-04-29 22:25 -28.07476 152.44299 35386 ft 533 kts 43°
2026-04-29 22:25 -28.02170 152.50182 35374 ft 533 kts 43°
2026-04-29 22:26 -27.96869 152.56036 35375 ft 533 kts 43°
2026-04-29 22:26 -27.91345 152.61636 35383 ft 533 kts 39°
2026-04-29 22:27 -27.85702 152.67083 35368 ft 531 kts 39°
2026-04-29 22:27 -27.80063 152.72474 35382 ft 533 kts 39°
2026-04-29 22:28 -27.74404 152.77888 35379 ft 532 kts 39°
2026-04-29 22:28 -27.68791 152.83259 35372 ft 535 kts 39°
2026-04-29 22:29 -27.63100 152.88697 35383 ft 535 kts 39°
2026-04-29 22:29 -27.57422 152.94115 35368 ft 533 kts 39°
2026-04-29 22:30 -27.51747 152.99524 35382 ft 535 kts 39°
2026-04-29 22:30 -27.46066 153.04930 35377 ft 535 kts 39°
2026-04-29 22:31 -27.40316 153.10230 35339 ft 532 kts 33°
2026-04-29 22:31 -27.37133 153.12232 35330 ft 529 kts 22°
2026-04-29 22:31 -27.33674 153.13599 35375 ft 525 kts 13°
2026-04-29 22:32 -27.26524 153.15299 35395 ft 524 kts
2026-04-29 22:32 -27.19340 153.16514 35370 ft 521 kts
2026-04-29 22:33 -27.12106 153.17661 35380 ft 526 kts
2026-04-29 22:33 -27.04905 153.18816 35378 ft 525 kts
2026-04-29 22:34 -26.97639 153.19995 35370 ft 524 kts
2026-04-29 22:34 -26.90455 153.21162 35384 ft 525 kts
2026-04-29 22:35 -26.83205 153.22338 35372 ft 525 kts
2026-04-29 22:35 -26.75983 153.23614 35352 ft 528 kts
2026-04-29 22:36 -26.68939 153.26000 35388 ft 531 kts 15°
2026-04-29 22:36 -26.62025 153.28797 35368 ft 529 kts 19°
2026-04-29 22:37 -26.55235 153.32037 35378 ft 531 kts 21°
2026-04-29 22:37 -26.48511 153.35522 35379 ft 532 kts 22°
2026-04-29 22:38 -26.41814 153.39047 35369 ft 531 kts 22°
2026-04-29 22:38 -26.35121 153.42560 35383 ft 532 kts 22°
2026-04-29 22:39 -26.28411 153.46070 35374 ft 532 kts 22°
2026-04-29 22:39 -26.21709 153.49569 35375 ft 532 kts 22°
2026-04-29 22:40 -26.14978 153.53078 35384 ft 533 kts 22°
2026-04-29 22:40 -26.08275 153.56568 35370 ft 532 kts 22°
2026-04-29 22:41 -26.01565 153.60057 35380 ft 532 kts 22°
2026-04-29 22:41 -25.94849 153.63544 35379 ft 533 kts 22°
2026-04-29 22:42 -25.88174 153.67005 35373 ft 529 kts 22°
2026-04-29 22:42 -25.81485 153.70474 35374 ft 527 kts 22°
2026-04-29 22:43 -25.74827 153.73919 35387 ft 534 kts 22°
2026-04-29 22:43 -25.68066 153.77412 35373 ft 536 kts 22°
2026-04-29 22:44 -25.61314 153.80897 35378 ft 535 kts 22°
2026-04-29 22:44 -25.54561 153.84378 35380 ft 535 kts 22°
2026-04-29 22:45 -25.47823 153.87847 35369 ft 534 kts 22°
2026-04-29 22:45 -25.41067 153.91321 35383 ft 535 kts 22°
2026-04-29 22:46 -25.34308 153.94791 35375 ft 535 kts 22°
2026-04-29 22:46 -25.27601 153.98233 35373 ft 535 kts 22°
2026-04-29 22:47 -25.20847 154.01693 35383 ft 535 kts 22°
2026-04-29 22:47 -25.14066 154.05164 35372 ft 539 kts 21°
2026-04-29 22:48 -25.07249 154.08646 35379 ft 538 kts 21°
2026-04-29 22:48 -25.00456 154.12113 35380 ft 538 kts 21°
2026-04-29 22:49 -24.93665 154.15575 35369 ft 538 kts 21°
2026-04-29 22:49 -24.86904 154.19018 35383 ft 538 kts 21°
2026-04-29 22:50 -24.80090 154.22483 35375 ft 538 kts 21°
2026-04-29 22:50 -24.73281 154.25918 35374 ft 537 kts 20°
2026-04-29 22:51 -24.66363 154.29001 35384 ft 534 kts 18°
2026-04-29 22:51 -24.55979 154.33312 35376 ft 532 kts 17°
2026-04-29 22:52 -24.49028 154.36179 35382 ft 533 kts 17°
2026-04-29 22:52 -24.42131 154.39032 35371 ft 532 kts 17°
2026-04-29 22:53 -24.35193 154.41903 35381 ft 533 kts 17°
2026-04-29 22:53 -24.28254 154.44770 35377 ft 533 kts 17°
2026-04-29 22:54 -24.21315 154.47635 35367 ft 534 kts 17°
2026-04-29 22:54 -24.14304 154.50525 35385 ft 539 kts 16°
2026-04-29 22:55 -24.07342 154.53390 35371 ft 537 kts 16°
2026-04-29 22:55 -24.00341 154.56270 35378 ft 538 kts 16°
2026-04-29 22:56 -23.93326 154.59150 35380 ft 538 kts 16°
2026-04-29 22:56 -23.87501 154.61541 35369 ft 538 kts 16°
2026-04-29 22:57 -23.79376 154.64867 35378 ft 523 kts 18°
2026-04-29 22:57 -23.73730 154.67189 35357 ft 524 kts 16°
2026-04-29 22:58 -23.66817 154.70011 35387 ft 535 kts 16°
2026-04-29 22:58 -23.59838 154.72858 35370 ft 535 kts 16°
2026-04-29 22:59 -23.52871 154.75703 35374 ft 534 kts 16°
2026-04-29 22:59 -23.45880 154.78553 35384 ft 537 kts 16°
2026-04-29 23:00 -23.38886 154.81399 35369 ft 535 kts 16°
2026-04-29 23:00 -23.31946 154.84222 35379 ft 536 kts 16°
2026-04-29 23:01 -23.24956 154.87060 35380 ft 536 kts 16°
2026-04-29 23:01 -23.17971 154.89896 35370 ft 533 kts 15°
2026-04-29 23:02 -23.11018 154.92715 35382 ft 533 kts 15°
2026-04-29 23:02 -23.04100 154.95513 35376 ft 534 kts 15°
2026-04-29 23:03 -22.97129 154.98332 35372 ft 533 kts 15°
2026-04-29 23:03 -22.90166 155.01145 35384 ft 534 kts 15°
2026-04-29 23:04 -22.83200 155.03955 35373 ft 533 kts 16°
2026-04-29 23:04 -22.76286 155.06743 35377 ft 533 kts 15°
2026-04-29 23:05 -22.69329 155.09546 35385 ft 531 kts 15°
2026-04-29 23:05 -22.62430 155.12323 35368 ft 526 kts 15°
2026-04-29 23:06 -22.55556 155.15081 35384 ft 529 kts 15°
2026-04-29 23:06 -22.48678 155.17839 35374 ft 528 kts 15°
2026-04-29 23:07 -22.41785 155.20604 35374 ft 528 kts 15°
2026-04-29 23:07 -22.34902 155.23360 35383 ft 528 kts 15°
2026-04-29 23:08 -22.27997 155.26122 35369 ft 529 kts 15°
2026-04-29 23:08 -22.21069 155.28891 35381 ft 531 kts 15°
2026-04-29 23:09 -22.14170 155.31646 35375 ft 527 kts 15°
2026-04-29 23:09 -22.07317 155.34379 35375 ft 528 kts 15°
2026-04-29 23:10 -22.00415 155.37127 35383 ft 529 kts 15°
2026-04-29 23:10 -21.93481 155.39887 35370 ft 528 kts 15°
2026-04-29 23:11 -21.86590 155.42628 35380 ft 528 kts 15°
2026-04-29 23:11 -21.79742 155.45346 35378 ft 528 kts 15°
2026-04-29 23:12 -21.72798 155.48098 35364 ft 524 kts 15°
2026-04-29 23:12 -21.65981 155.50806 35382 ft 528 kts 15°
2026-04-29 23:13 -21.59074 155.53537 35377 ft 529 kts 15°
2026-04-29 23:13 -21.52162 155.56272 35371 ft 528 kts 15°
2026-04-29 23:14 -21.45252 155.59002 35384 ft 528 kts 15°
2026-04-29 23:14 -21.38391 155.61709 35372 ft 528 kts 15°
2026-04-29 23:15 -21.31494 155.64430 35377 ft 528 kts 15°
2026-04-29 23:15 -21.24597 155.67146 35382 ft 528 kts 15°
2026-04-29 23:16 -21.17683 155.69869 35372 ft 526 kts 14°
2026-04-29 23:16 -21.10850 155.72559 35378 ft 522 kts 14°
2026-04-29 23:17 -21.03983 155.75252 35382 ft 525 kts 14°
2026-04-29 23:17 -20.97131 155.77939 35369 ft 524 kts 14°
2026-04-29 23:18 -20.90313 155.80612 35382 ft 525 kts 14°
2026-04-29 23:18 -20.83442 155.83302 35376 ft 525 kts 14°
2026-04-29 23:19 -20.76580 155.85988 35372 ft 524 kts 14°
2026-04-29 23:19 -20.69724 155.88668 35384 ft 525 kts 14°
2026-04-29 23:20 -20.62862 155.91348 35371 ft 523 kts 14°
2026-04-29 23:20 -20.56048 155.94007 35378 ft 524 kts 14°
2026-04-29 23:21 -20.49188 155.96678 35381 ft 524 kts 14°
2026-04-29 23:21 -20.42340 155.99345 35369 ft 524 kts 14°
2026-04-29 23:22 -20.35520 156.01998 35382 ft 524 kts 14°
2026-04-29 23:22 -20.28669 156.04660 35375 ft 524 kts 14°
2026-04-29 23:23 -20.21802 156.07327 35373 ft 524 kts 14°
2026-04-29 23:23 -20.14960 156.09980 35384 ft 524 kts 14°
2026-04-29 23:24 -20.08084 156.12644 35371 ft 524 kts 14°
2026-04-29 23:24 -20.01240 156.15295 35378 ft 524 kts 14°
2026-04-29 23:25 -19.94380 156.17948 35380 ft 524 kts 14°
2026-04-29 23:25 -19.87516 156.20601 35370 ft 524 kts 14°
2026-04-29 23:26 -19.80663 156.23257 35382 ft 524 kts 14°
2026-04-29 23:26 -19.73866 156.25901 35375 ft 524 kts 14°
2026-04-29 23:27 -19.67016 156.28552 35370 ft 520 kts 17°
2026-04-29 23:27 -19.60195 156.31225 35384 ft 524 kts 14°
2026-04-29 23:28 -19.53337 156.33885 35374 ft 524 kts 14°
2026-04-29 23:28 -19.46503 156.36535 35374 ft 523 kts 14°
2026-04-29 23:29 -19.39693 156.39174 35383 ft 523 kts 14°
2026-04-29 23:29 -19.32841 156.41828 35371 ft 523 kts 14°
2026-04-29 23:30 -19.26015 156.44471 35379 ft 523 kts 14°
2026-04-29 23:30 -19.19165 156.47118 35382 ft 522 kts 14°
2026-04-29 23:31 -19.12356 156.49750 35369 ft 518 kts 14°
2026-04-29 23:31 -19.05579 156.52365 35384 ft 520 kts 14°
2026-04-29 23:32 -18.98805 156.54976 35374 ft 520 kts 14°
2026-04-29 23:32 -18.91968 156.57613 35375 ft 519 kts 14°
2026-04-29 23:33 -18.85226 156.60209 35383 ft 520 kts 14°
2026-04-29 23:33 -18.78402 156.62833 35370 ft 520 kts 14°
2026-04-29 23:34 -18.71598 156.65448 35380 ft 520 kts 14°
2026-04-29 23:34 -18.64807 156.68055 35379 ft 520 kts 14°
2026-04-29 23:35 -18.58043 156.70651 35370 ft 520 kts 14°
2026-04-29 23:35 -18.51254 156.73254 35383 ft 520 kts 14°
2026-04-29 23:36 -18.44449 156.75859 35374 ft 520 kts 14°
2026-04-29 23:36 -18.37645 156.78465 35375 ft 520 kts 14°
2026-04-29 23:37 -18.30872 156.81054 35383 ft 520 kts 14°
2026-04-29 23:37 -18.25177 156.83229 35371 ft 520 kts 14°
2026-04-29 23:38 -18.18406 156.85815 35378 ft 520 kts 14°
2026-04-29 23:38 -18.11600 156.88410 35381 ft 520 kts 14°
2026-04-29 23:39 -18.04834 156.90989 35370 ft 519 kts 14°
2026-04-29 23:39 -17.97997 156.93594 35382 ft 520 kts 14°
2026-04-29 23:40 -17.91227 156.96169 35376 ft 520 kts 14°
2026-04-29 23:40 -17.84432 156.98753 35372 ft 519 kts 14°
2026-04-29 23:41 -17.77625 157.01339 35384 ft 520 kts 14°
2026-04-29 23:41 -17.70825 157.03919 35372 ft 520 kts 14°
2026-04-29 23:42 -17.64023 157.06487 35377 ft 521 kts 17°
2026-04-29 23:42 -17.57202 157.09090 35381 ft 521 kts 14°
2026-04-29 23:43 -17.50397 157.11671 35369 ft 519 kts 14°
2026-04-29 23:43 -17.43593 157.14239 35383 ft 520 kts 14°
2026-04-29 23:44 -17.36770 157.16815 35374 ft 520 kts 14°
2026-04-29 23:44 -17.30010 157.19370 35374 ft 519 kts 14°
2026-04-29 23:45 -17.23197 157.21941 35383 ft 520 kts 14°
2026-04-29 23:45 -17.16383 157.24511 35370 ft 520 kts 14°
2026-04-29 23:46 -17.09580 157.27077 35379 ft 520 kts 14°
2026-04-29 23:46 -17.02798 157.29630 35379 ft 521 kts 14°
2026-04-29 23:47 -16.95988 157.32193 35370 ft 520 kts 14°
2026-04-29 23:47 -16.89168 157.34757 35383 ft 520 kts 14°
2026-04-29 23:48 -16.82354 157.37317 35374 ft 520 kts 14°
2026-04-29 23:48 -16.75546 157.39874 35374 ft 520 kts 14°
2026-04-29 23:49 -16.68769 157.42416 35383 ft 520 kts 14°
2026-04-29 23:49 -16.61954 157.44969 35370 ft 520 kts 14°
2026-04-29 23:50 -16.55146 157.47517 35379 ft 520 kts 14°
2026-04-29 23:51 -16.44910 157.51342 35372 ft 520 kts 14°
2026-04-29 23:51 -16.38126 157.53876 35378 ft 520 kts 14°
2026-04-29 23:52 -16.31317 157.56416 35381 ft 520 kts 14°
2026-04-29 23:52 -16.24478 157.58965 35370 ft 520 kts 14°
2026-04-29 23:53 -16.17661 157.61505 35382 ft 520 kts 14°
2026-04-29 23:53 -16.10881 157.64028 35376 ft 520 kts 14°
2026-04-29 23:54 -16.04065 157.66565 35373 ft 520 kts 14°
2026-04-29 23:54 -15.97242 157.69101 35384 ft 520 kts 14°
2026-04-29 23:55 -15.90416 157.71636 35371 ft 520 kts 14°
2026-04-29 23:55 -15.83616 157.74160 35378 ft 520 kts 14°
2026-04-29 23:56 -15.76797 157.76690 35381 ft 519 kts 14°
2026-04-29 23:56 -15.70005 157.79208 35370 ft 517 kts 14°
2026-04-29 23:57 -15.63258 157.81701 35383 ft 519 kts 16°
2026-04-29 23:57 -15.56414 157.84225 35375 ft 522 kts 15°
2026-04-29 23:58 -15.49616 157.86764 35368 ft 516 kts 14°
2026-04-29 23:58 -15.42845 157.89262 35384 ft 518 kts 13°
2026-04-29 23:59 -15.36073 157.91756 35376 ft 518 kts 14°
2026-04-29 23:59 -15.29275 157.94266 35373 ft 517 kts 13°
2026-04-30 00:00 -15.22487 157.96769 35384 ft 518 kts 13°
2026-04-30 00:00 -15.15699 157.99271 35371 ft 518 kts 14°
2026-04-30 00:01 -15.08952 158.01757 35378 ft 518 kts 13°
2026-04-30 00:01 -15.02113 158.04274 35380 ft 518 kts 14°
2026-04-30 00:02 -14.95346 158.06763 35370 ft 518 kts 13°
2026-04-30 00:02 -14.88561 158.09258 35382 ft 518 kts 13°
2026-04-30 00:03 -14.81749 158.11758 35375 ft 518 kts 14°
2026-04-30 00:03 -14.74957 158.14253 35373 ft 518 kts 14°
2026-04-30 00:04 -14.68132 158.16747 35385 ft 523 kts 15°
2026-04-30 00:04 -14.61283 158.19263 35371 ft 522 kts 15°
2026-04-30 00:05 -14.54445 158.21774 35377 ft 521 kts 15°
2026-04-30 00:05 -14.47583 158.24286 35381 ft 522 kts 15°
2026-04-30 00:06 -14.40800 158.26768 35370 ft 521 kts 15°
2026-04-30 00:06 -14.33950 158.29273 35382 ft 521 kts 15°
2026-04-30 00:07 -14.27094 158.31777 35377 ft 522 kts 15°
2026-04-30 00:07 -14.20258 158.34272 35372 ft 520 kts 16°
2026-04-30 00:08 -14.13471 158.36749 35383 ft 520 kts 16°
2026-04-30 00:08 -14.06630 158.39246 35373 ft 520 kts 16°
2026-04-30 00:09 -13.99803 158.41730 35376 ft 520 kts 15°
2026-04-30 00:09 -13.93015 158.44188 35382 ft 520 kts 15°
2026-04-30 00:10 -13.86175 158.46659 35369 ft 520 kts 15°
2026-04-30 00:10 -13.79326 158.49132 35381 ft 520 kts 15°
2026-04-30 00:11 -13.72535 158.51581 35378 ft 520 kts 16°
2026-04-30 00:11 -13.65735 158.54032 35369 ft 517 kts 16°
2026-04-30 00:12 -13.58938 158.56483 35383 ft 519 kts 16°
2026-04-30 00:12 -13.52109 158.58943 35374 ft 518 kts 16°
2026-04-30 00:13 -13.45290 158.61399 35374 ft 517 kts 16°
2026-04-30 00:13 -13.38471 158.63851 35383 ft 519 kts 16°
2026-04-30 00:14 -13.31703 158.66284 35370 ft 518 kts 16°
2026-04-30 00:14 -13.24900 158.68729 35380 ft 518 kts 16°
2026-04-30 00:15 -13.18094 158.71172 35379 ft 518 kts 16°
2026-04-30 00:15 -13.11295 158.73612 35370 ft 516 kts 16°
2026-04-30 00:16 -13.04498 158.76051 35384 ft 517 kts 16°
2026-04-30 00:16 -12.97715 158.78483 35373 ft 513 kts 16°
2026-04-30 00:17 -12.91021 158.80882 35375 ft 513 kts 16°
2026-04-30 00:17 -12.84255 158.83302 35383 ft 514 kts 16°
2026-04-30 00:18 -12.77491 158.85723 35370 ft 514 kts 16°
2026-04-30 00:18 -12.70749 158.88135 35381 ft 514 kts 16°
2026-04-30 00:19 -12.64001 158.90546 35376 ft 513 kts 16°
2026-04-30 00:19 -12.57286 158.92945 35372 ft 512 kts 16°
2026-04-30 00:20 -12.50535 158.95356 35384 ft 513 kts 16°
2026-04-30 00:20 -12.43793 158.97761 35371 ft 513 kts 16°
2026-04-30 00:21 -12.37055 159.00165 35378 ft 513 kts 16°
2026-04-30 00:21 -12.31452 159.02162 35383 ft 513 kts 16°
2026-04-30 00:22 -12.23616 159.04953 35370 ft 512 kts 16°
2026-04-30 00:22 -12.17991 159.06955 35379 ft 508 kts 17°
2026-04-30 00:23 -12.11306 159.09336 35380 ft 509 kts 17°
2026-04-30 00:23 -12.04642 159.11707 35370 ft 510 kts 17°
2026-04-30 00:24 -11.97950 159.14086 35382 ft 509 kts 17°
2026-04-30 00:24 -11.91243 159.16469 35376 ft 510 kts 17°
2026-04-30 00:25 -11.84533 159.18852 35373 ft 509 kts 17°
2026-04-30 00:25 -11.77837 159.21230 35384 ft 510 kts 17°
2026-04-30 00:26 -11.71150 159.23602 35371 ft 510 kts 17°
2026-04-30 00:26 -11.64474 159.25967 35376 ft 505 kts 17°
2026-04-30 00:27 -11.57869 159.28310 35382 ft 504 kts 17°
2026-04-30 00:27 -11.51163 159.30686 35392 ft 511 kts 17°
2026-04-30 00:28 -11.44495 159.33044 35370 ft 504 kts 17°
2026-04-30 00:28 -11.37889 159.35385 35377 ft 503 kts 17°
2026-04-30 00:29 -11.31234 159.37739 35381 ft 505 kts 17°
2026-04-30 00:29 -11.24642 159.40070 35370 ft 504 kts 17°
2026-04-30 00:30 -11.17999 159.42416 35384 ft 503 kts 17°
2026-04-30 00:30 -11.11398 159.44748 35373 ft 501 kts 17°
2026-04-30 00:31 -11.04811 159.47073 35377 ft 501 kts 17°
2026-04-30 00:31 -10.98232 159.49399 35382 ft 502 kts 17°
2026-04-30 00:32 -10.91628 159.51736 35370 ft 501 kts 17°
2026-04-30 00:32 -10.85030 159.54069 35382 ft 502 kts 17°
2026-04-30 00:33 -10.78429 159.56403 35376 ft 502 kts 17°
2026-04-30 00:33 -10.71867 159.58721 35373 ft 501 kts 17°
2026-04-30 00:34 -10.65274 159.61049 35383 ft 501 kts 18°
2026-04-30 00:34 -10.58681 159.63378 35371 ft 501 kts 18°
2026-04-30 00:35 -10.52083 159.65707 35378 ft 501 kts 18°
2026-04-30 00:35 -10.45480 159.68036 35380 ft 502 kts 18°
2026-04-30 00:36 -10.38886 159.70358 35370 ft 501 kts 18°
2026-04-30 00:36 -10.32329 159.72661 35383 ft 501 kts 18°
2026-04-30 00:37 -10.25731 159.74975 35375 ft 501 kts 18°
2026-04-30 00:37 -10.19077 159.77305 35147 ft 512 kts 18°
2026-04-30 00:38 -10.12321 159.79672 35041 ft 513 kts 18°
2026-04-30 00:38 -10.05557 159.82042 35027 ft 514 kts 18°
2026-04-30 00:39 -9.98792 159.84411 35018 ft 514 kts 18°
2026-04-30 00:39 -9.92063 159.86766 35025 ft 514 kts 18°
2026-04-30 00:40 -9.85248 159.89148 35024 ft 514 kts 18°
2026-04-30 00:40 -9.78510 159.91504 35017 ft 514 kts 18°
2026-04-30 00:41 -9.71750 159.93866 35029 ft 514 kts 18°
2026-04-30 00:41 -9.64967 159.96234 35020 ft 515 kts 18°
2026-04-30 00:42 -9.58230 159.98587 35020 ft 515 kts 18°
2026-04-30 00:42 -9.51486 160.00948 35026 ft 512 kts 19°
2026-04-30 00:43 -9.45119 160.04238 35038 ft 516 kts 30°
2026-04-30 00:43 -9.38998 160.08111 34950 ft 517 kts 32°
2026-04-30 00:44 -9.33132 160.12311 34936 ft 516 kts 36°
2026-04-30 00:44 -9.27427 160.16781 34929 ft 517 kts 38°
2026-04-30 00:45 -9.21824 160.21284 34938 ft 517 kts 38°
2026-04-30 00:45 -9.16196 160.25818 34934 ft 518 kts 38°
2026-04-30 00:46 -9.10539 160.30367 34929 ft 519 kts 38°
2026-04-30 00:46 -9.04914 160.34885 34941 ft 519 kts 38°
2026-04-30 00:47 -8.99259 160.39426 34929 ft 518 kts 38°
2026-04-30 00:47 -8.93620 160.43952 34935 ft 518 kts 39°
2026-04-30 00:48 -8.87962 160.48491 34938 ft 519 kts 38°
2026-04-30 00:48 -8.82321 160.53014 34926 ft 518 kts 38°
2026-04-30 00:49 -8.76656 160.57554 34939 ft 518 kts 38°
2026-04-30 00:49 -8.71002 160.62085 34930 ft 518 kts 38°
2026-04-30 00:50 -8.65399 160.66573 34930 ft 516 kts 38°
2026-04-30 00:50 -8.59756 160.71100 34939 ft 517 kts 39°
2026-04-30 00:51 -8.54116 160.75625 34927 ft 517 kts 39°
2026-04-30 00:51 -8.48504 160.80125 34934 ft 518 kts 39°
2026-04-30 00:52 -8.42869 160.84643 34934 ft 515 kts 39°
2026-04-30 00:52 -8.37272 160.89131 34926 ft 512 kts 39°
2026-04-30 00:53 -8.31702 160.93594 34938 ft 511 kts 39°
2026-04-30 00:53 -8.26128 160.98059 34927 ft 511 kts 38°
2026-04-30 00:54 -8.20558 161.02516 34931 ft 510 kts 38°
2026-04-30 00:54 -8.14985 161.06973 34935 ft 511 kts 39°
2026-04-30 00:55 -8.09388 161.11453 34924 ft 514 kts 39°
2026-04-30 00:55 -8.01027 161.18150 34936 ft 513 kts 39°
2026-04-30 00:56 -7.95418 161.22640 34924 ft 514 kts 39°
2026-04-30 00:56 -7.89819 161.27120 34931 ft 514 kts 39°
2026-04-30 00:57 -7.84190 161.31622 34933 ft 517 kts 38°
2026-04-30 00:57 -7.78545 161.36135 34926 ft 518 kts 39°
2026-04-30 00:58 -7.72932 161.40617 34933 ft 516 kts 39°
2026-04-30 00:58 -7.67262 161.45147 34930 ft 520 kts 39°
2026-04-30 00:59 -7.61590 161.49678 34921 ft 519 kts 39°
2026-04-30 00:59 -7.55927 161.54200 34934 ft 519 kts 39°
2026-04-30 01:00 -7.50288 161.58701 34924 ft 519 kts 39°
2026-04-30 01:00 -7.44619 161.63222 34925 ft 519 kts 39°
2026-04-30 01:01 -7.38957 161.67738 34933 ft 520 kts 39°
2026-04-30 01:01 -7.33279 161.72265 34919 ft 519 kts 39°
2026-04-30 01:02 -7.27640 161.76759 34930 ft 519 kts 39°
2026-04-30 01:02 -7.21998 161.81256 34924 ft 516 kts 38°
2026-04-30 01:03 -7.16368 161.85737 34923 ft 513 kts 39°
2026-04-30 01:03 -7.10773 161.90193 34931 ft 511 kts 39°
2026-04-30 01:04 -7.06137 161.93885 34919 ft 512 kts 38°
2026-04-30 01:04 -6.99617 161.99071 34928 ft 511 kts 38°
2026-04-30 01:05 -6.94975 162.02764 34928 ft 511 kts 38°
2026-04-30 01:05 -6.89389 162.07206 34918 ft 511 kts 38°
2026-04-30 01:06 -6.83802 162.11647 34929 ft 511 kts 38°
2026-04-30 01:06 -6.78249 162.16061 34923 ft 512 kts 38°
2026-04-30 01:07 -6.72649 162.20514 34919 ft 511 kts 39°
2026-04-30 01:07 -6.67091 162.24955 34929 ft 512 kts 39°
2026-04-30 01:08 -6.61510 162.29427 34919 ft 514 kts 39°
2026-04-30 01:08 -6.55936 162.33891 34921 ft 514 kts 39°
2026-04-30 01:09 -6.50331 162.38377 34928 ft 514 kts 39°
2026-04-30 01:09 -6.44729 162.42860 34916 ft 514 kts 39°
2026-04-30 01:10 -6.39163 162.47312 34925 ft 513 kts 39°
2026-04-30 01:10 -6.33568 162.51786 34923 ft 514 kts 39°
2026-04-30 01:11 -6.27966 162.56265 34916 ft 514 kts 39°
2026-04-30 01:11 -6.22361 162.60745 34928 ft 514 kts 39°
2026-04-30 01:12 -6.16759 162.65225 34912 ft 519 kts 38°
2026-04-30 01:12 -6.11122 162.69723 34922 ft 518 kts 39°
2026-04-30 01:13 -6.05494 162.74218 34917 ft 515 kts 39°
2026-04-30 01:13 -5.99877 162.78703 34928 ft 516 kts 39°
2026-04-30 01:14 -5.94248 162.83197 34915 ft 516 kts 39°
2026-04-30 01:14 -5.88655 162.87660 34920 ft 515 kts 39°
2026-04-30 01:15 -5.83036 162.92142 34924 ft 516 kts 39°
2026-04-30 01:15 -5.77416 162.96625 34913 ft 516 kts 39°
2026-04-30 01:16 -5.71791 163.01111 34926 ft 515 kts 39°
2026-04-30 01:16 -5.66209 163.05561 34917 ft 513 kts 39°
2026-04-30 01:17 -5.60614 163.10018 34916 ft 512 kts 39°
2026-04-30 01:17 -5.55018 163.14477 34924 ft 513 kts 39°
2026-04-30 01:18 -5.49417 163.18938 34912 ft 513 kts 39°
2026-04-30 01:18 -5.43858 163.23364 34921 ft 513 kts 39°
2026-04-30 01:19 -5.38260 163.27821 34919 ft 513 kts 39°
2026-04-30 01:19 -5.32665 163.32274 34912 ft 513 kts 39°
2026-04-30 01:20 -5.27075 163.36722 34923 ft 513 kts 39°
2026-04-30 01:20 -5.21475 163.41178 34913 ft 513 kts 39°
2026-04-30 01:21 -5.15911 163.45603 34915 ft 511 kts 39°
2026-04-30 01:21 -5.10336 163.50037 34922 ft 512 kts 39°
2026-04-30 01:22 -5.04747 163.54480 34910 ft 512 kts 39°
2026-04-30 01:22 -4.99157 163.58924 34918 ft 512 kts 39°
2026-04-30 01:23 -4.93569 163.63365 34917 ft 512 kts 39°
2026-04-30 01:23 -4.88013 163.67778 34909 ft 512 kts 39°
2026-04-30 01:24 -4.82424 163.72218 34921 ft 512 kts 39°
2026-04-30 01:24 -4.76840 163.76652 34912 ft 512 kts 39°
2026-04-30 01:25 -4.71245 163.81094 34912 ft 512 kts 39°
2026-04-30 01:25 -4.65652 163.85534 34920 ft 512 kts 39°
2026-04-30 01:26 -4.60067 163.89967 34908 ft 512 kts 39°
2026-04-30 01:26 -4.54517 163.94370 34916 ft 512 kts 39°
2026-04-30 01:27 -4.48919 163.98814 34908 ft 516 kts 39°
2026-04-30 01:27 -4.43248 164.03309 34919 ft 518 kts 39°
2026-04-30 01:28 -4.37644 164.07751 34903 ft 509 kts 39°
2026-04-30 01:28 -4.32096 164.12150 34919 ft 512 kts 39°
2026-04-30 01:29 -4.26468 164.16614 34911 ft 513 kts 39°
2026-04-30 01:29 -4.20909 164.21019 34908 ft 512 kts 39°
2026-04-30 01:30 -4.15332 164.25438 34919 ft 512 kts 39°
2026-04-30 01:30 -4.09739 164.29869 34905 ft 509 kts 39°
2026-04-30 01:31 -4.04214 164.34244 34913 ft 509 kts 39°
2026-04-30 01:31 -3.98643 164.38657 34915 ft 510 kts 39°
2026-04-30 01:32 -3.93064 164.43075 34905 ft 510 kts 39°
2026-04-30 01:32 -3.87513 164.47469 34916 ft 509 kts 39°
2026-04-30 01:33 -3.81983 164.51847 34910 ft 510 kts 39°
2026-04-30 01:33 -3.76407 164.56259 34905 ft 509 kts 39°
2026-04-30 01:34 -3.70843 164.60661 34917 ft 509 kts 39°
2026-04-30 01:34 -3.65274 164.65069 34906 ft 510 kts 39°
2026-04-30 01:35 -3.59710 164.69469 34908 ft 509 kts 39°
2026-04-30 01:35 -3.54158 164.73860 34915 ft 509 kts 39°
2026-04-30 01:36 -3.48581 164.78270 34903 ft 509 kts 39°
2026-04-30 01:36 -3.43062 164.82633 34911 ft 508 kts 39°
2026-04-30 01:37 -3.37497 164.87032 34912 ft 509 kts 39°
2026-04-30 01:37 -3.31938 164.91427 34902 ft 509 kts 39°
2026-04-30 01:38 -3.26408 164.95796 34914 ft 508 kts 39°
2026-04-30 01:38 -3.20843 165.00194 34907 ft 510 kts 39°
2026-04-30 01:39 -3.15280 165.04588 34904 ft 508 kts 39°
2026-04-30 01:39 -3.09724 165.08978 34914 ft 508 kts 39°
2026-04-30 01:40 -3.04200 165.13342 34904 ft 510 kts 39°
2026-04-30 01:40 -2.98571 165.17646 34907 ft 508 kts 37°
2026-04-30 01:41 -2.92834 165.21796 34911 ft 509 kts 37°
2026-04-30 01:41 -2.87058 165.25925 34900 ft 509 kts 36°
2026-04-30 01:42 -2.81282 165.30053 34904 ft 513 kts 36°
2026-04-30 01:42 -2.75416 165.34253 34921 ft 520 kts 36°
2026-04-30 01:43 -2.69611 165.38394 34896 ft 511 kts 36°
2026-04-30 01:43 -2.63842 165.42521 34905 ft 509 kts 36°
2026-04-30 01:44 -2.58056 165.46660 34909 ft 512 kts 36°
2026-04-30 01:44 -2.52253 165.50809 34897 ft 512 kts 36°
2026-04-30 01:45 -2.46500 165.54921 34909 ft 510 kts 36°
2026-04-30 01:45 -2.40695 165.59071 34904 ft 511 kts 36°
2026-04-30 01:46 -2.34908 165.63207 34900 ft 511 kts 36°
2026-04-30 01:46 -2.29153 165.67319 34911 ft 511 kts 36°
2026-04-30 01:47 -2.23341 165.71473 34900 ft 512 kts 36°
2026-04-30 01:47 -2.17549 165.75610 34904 ft 511 kts 36°
2026-04-30 01:48 -2.11769 165.79741 34910 ft 510 kts 36°
2026-04-30 01:48 -2.06026 165.83844 34896 ft 510 kts 36°
2026-04-30 01:49 -2.00268 165.87957 34908 ft 509 kts 35°
2026-04-30 01:49 -1.94478 165.92092 34905 ft 512 kts 35°
2026-04-30 01:50 -1.89636 165.95549 34899 ft 514 kts 35°
2026-04-30 01:50 -1.83809 165.99709 34910 ft 514 kts 35°
2026-04-30 01:51 -1.78013 166.03846 34902 ft 514 kts 35°
2026-04-30 01:51 -1.72196 166.08000 34902 ft 514 kts 35°
2026-04-30 01:52 -1.65387 166.12862 34909 ft 514 kts 35°
2026-04-30 01:52 -1.60553 166.16312 34898 ft 514 kts 35°
2026-04-30 01:53 -1.54733 166.20467 34907 ft 513 kts 35°
2026-04-30 01:53 -1.48927 166.24612 34892 ft 510 kts 34°
2026-04-30 01:54 -1.43172 166.28718 34871 ft 506 kts 35°
2026-04-30 01:54 -1.37476 166.32780 34874 ft 507 kts 36°
2026-04-30 01:55 -1.31721 166.36887 34880 ft 508 kts 36°
2026-04-30 01:55 -1.25970 166.40994 34868 ft 507 kts 36°
2026-04-30 01:56 -1.20235 166.45087 34880 ft 507 kts 36°
2026-04-30 01:56 -1.14469 166.49201 34875 ft 509 kts 36°
2026-04-30 01:57 -1.08739 166.53288 34863 ft 510 kts 37°
2026-04-30 01:57 -1.02894 166.57458 34886 ft 520 kts 37°
2026-04-30 01:58 -0.97049 166.61635 34869 ft 509 kts 36°
2026-04-30 01:58 -0.91309 166.65727 34871 ft 506 kts 36°
2026-04-30 01:59 -0.82690 166.71874 34874 ft 509 kts 36°
2026-04-30 02:00 -0.76937 166.75978 34870 ft 508 kts 36°
2026-04-30 02:00 -0.71173 166.80085 34883 ft 507 kts 37°
2026-04-30 02:01 -0.65464 166.84157 34868 ft 506 kts 37°
2026-04-30 02:01 -0.59718 166.88259 34879 ft 507 kts 37°
2026-04-30 02:02 -0.53906 166.92283 34874 ft 508 kts 34°
2026-04-30 02:02 -0.47836 166.95921 34869 ft 508 kts 32°
2026-04-30 02:03 -0.41715 166.99455 34881 ft 508 kts 31°
2026-04-30 02:03 -0.35580 167.03004 34871 ft 508 kts 32°
2026-04-30 02:04 -0.29507 167.06530 34873 ft 508 kts 32°
2026-04-30 02:04 -0.23366 167.10101 34881 ft 509 kts 32°
2026-04-30 02:05 -0.17279 167.13638 34868 ft 508 kts 32°
2026-04-30 02:05 -0.11163 167.17195 34878 ft 507 kts 32°
2026-04-30 02:06 -0.05049 167.20752 34876 ft 508 kts 32°
2026-04-30 02:06 0.01060 167.24304 34870 ft 508 kts 32°
2026-04-30 02:07 0.07175 167.27861 34881 ft 510 kts 32°
2026-04-30 02:07 0.13276 167.31409 34873 ft 511 kts 32°
2026-04-30 02:08 0.19420 167.34980 34871 ft 509 kts 32°
2026-04-30 02:08 0.25554 167.38546 34881 ft 510 kts 32°
2026-04-30 02:09 0.31645 167.42088 34869 ft 509 kts 32°
2026-04-30 02:09 0.37772 167.45650 34876 ft 508 kts 32°
2026-04-30 02:10 0.43892 167.49209 34879 ft 509 kts 32°
2026-04-30 02:10 0.50021 167.52774 34868 ft 509 kts 31°
2026-04-30 02:11 0.56149 167.56336 34880 ft 508 kts 32°
2026-04-30 02:11 0.62223 167.59870 34873 ft 509 kts 32°
2026-04-30 02:12 0.68360 167.63438 34872 ft 509 kts 32°
2026-04-30 02:12 0.74504 167.67012 34890 ft 515 kts 32°
2026-04-30 02:13 0.80659 167.70590 34872 ft 509 kts 32°
2026-04-30 02:13 0.86781 167.74150 34873 ft 508 kts 32°
2026-04-30 02:14 0.92909 167.77715 34881 ft 509 kts 32°
2026-04-30 02:14 0.99035 167.81279 34868 ft 508 kts 32°
2026-04-30 02:15 1.05105 167.84809 34879 ft 508 kts 32°
2026-04-30 02:15 1.11225 167.88370 34875 ft 509 kts 32°
2026-04-30 02:16 1.17338 167.91925 34870 ft 508 kts 32°
2026-04-30 02:16 1.23462 167.95488 34881 ft 508 kts 32°
2026-04-30 02:17 1.29583 167.99050 34872 ft 509 kts 31°
2026-04-30 02:17 1.35681 168.02598 34872 ft 506 kts 31°
2026-04-30 02:18 1.41743 168.06124 34882 ft 507 kts 31°
2026-04-30 02:18 1.47854 168.09681 34869 ft 508 kts 31°
2026-04-30 02:19 1.53956 168.13230 34876 ft 506 kts 31°
2026-04-30 02:19 1.60057 168.16781 34879 ft 507 kts 31°
2026-04-30 02:20 1.66122 168.20312 34869 ft 508 kts 31°
2026-04-30 02:20 1.72226 168.23864 34879 ft 507 kts 31°
2026-04-30 02:21 1.78312 168.27407 34875 ft 507 kts 31°
2026-04-30 02:21 1.84413 168.30959 34869 ft 505 kts 31°
2026-04-30 02:22 1.90463 168.34481 34881 ft 505 kts 31°
2026-04-30 02:22 1.96549 168.38024 34871 ft 506 kts 31°
2026-04-30 02:23 2.02639 168.41570 34874 ft 505 kts 31°
2026-04-30 02:23 2.08711 168.45106 34880 ft 506 kts 31°
2026-04-30 02:24 2.14801 168.48653 34869 ft 506 kts 31°
2026-04-30 02:24 2.20898 168.52204 34878 ft 505 kts 31°
2026-04-30 02:25 2.26977 168.55745 34875 ft 507 kts 31°
2026-04-30 02:25 2.33048 168.59283 34869 ft 507 kts 31°
2026-04-30 02:26 2.39127 168.62824 34880 ft 506 kts 31°
2026-04-30 02:26 2.45225 168.66377 34872 ft 507 kts 31°
2026-04-30 02:27 2.51321 168.69928 34872 ft 506 kts 31°
2026-04-30 02:27 2.57437 168.73490 34880 ft 515 kts 32°
2026-04-30 02:28 2.63625 168.77102 34881 ft 509 kts 31°
2026-04-30 02:28 2.69698 168.80639 34866 ft 501 kts 31°
2026-04-30 02:29 2.75741 168.84163 34883 ft 505 kts 31°
2026-04-30 02:29 2.81808 168.87698 34871 ft 507 kts 32°
2026-04-30 02:30 2.87898 168.91251 34873 ft 506 kts 31°
2026-04-30 02:30 2.93998 168.94809 34881 ft 507 kts 32°
2026-04-30 02:31 3.00055 168.98342 34868 ft 506 kts 32°
2026-04-30 02:31 3.06159 169.01903 34879 ft 507 kts 31°
2026-04-30 02:32 3.12260 169.05462 34875 ft 506 kts 32°
2026-04-30 02:32 3.18305 169.08990 34870 ft 506 kts 32°
2026-04-30 02:33 3.24409 169.12553 34882 ft 507 kts 31°
2026-04-30 02:33 3.30509 169.16112 34870 ft 508 kts 32°
2026-04-30 02:34 3.35590 169.19080 34873 ft 509 kts 31°
2026-04-30 02:34 3.42715 169.23238 34877 ft 508 kts 32°
2026-04-30 02:35 3.48831 169.26795 34870 ft 508 kts 31°
2026-04-30 02:35 3.53984 169.29703 34880 ft 507 kts 31°
2026-04-30 02:36 3.60116 169.33120 34873 ft 508 kts 30°
2026-04-30 02:36 3.66301 169.36557 34871 ft 508 kts 30°
2026-04-30 02:37 3.72478 169.39991 34881 ft 508 kts 30°
2026-04-30 02:37 3.78667 169.43434 34869 ft 508 kts 30°
2026-04-30 02:38 3.84861 169.46883 34878 ft 510 kts 30°
2026-04-30 02:38 3.91063 169.50332 34876 ft 509 kts 30°
2026-04-30 02:39 3.97235 169.53766 34870 ft 510 kts 30°
2026-04-30 02:39 4.03440 169.57219 34881 ft 509 kts 30°
2026-04-30 02:40 4.09639 169.60670 34871 ft 510 kts 30°
2026-04-30 02:40 4.15804 169.64103 34875 ft 509 kts 30°
2026-04-30 02:41 4.21999 169.67553 34880 ft 509 kts 30°
2026-04-30 02:41 4.28199 169.71006 34870 ft 509 kts 30°
2026-04-30 02:42 4.34337 169.74423 34875 ft 501 kts 30°
2026-04-30 02:42 4.40467 169.77839 34873 ft 509 kts 31°
2026-04-30 02:43 4.46700 169.81318 34891 ft 521 kts 30°
2026-04-30 02:43 4.53007 169.84836 34867 ft 513 kts 30°
2026-04-30 02:44 4.59223 169.88297 34874 ft 511 kts 30°
2026-04-30 02:44 4.65461 169.91776 34880 ft 513 kts 30°
2026-04-30 02:45 4.71707 169.95260 34868 ft 513 kts 30°
2026-04-30 02:45 4.77902 169.98716 34879 ft 512 kts 30°
2026-04-30 02:46 4.84144 170.02199 34875 ft 513 kts 30°
2026-04-30 02:46 4.90386 170.05683 34869 ft 513 kts 30°
2026-04-30 02:47 4.96647 170.09178 34882 ft 514 kts 30°
2026-04-30 02:47 5.02899 170.12669 34871 ft 514 kts 30°
2026-04-30 02:48 5.09147 170.16158 34874 ft 513 kts 30°
2026-04-30 02:48 5.15320 170.19607 34879 ft 514 kts 30°
2026-04-30 02:49 5.21595 170.23114 34870 ft 514 kts 30°
2026-04-30 02:49 5.27828 170.26597 34879 ft 513 kts 30°
2026-04-30 02:50 5.34059 170.30078 34875 ft 508 kts 30°
2026-04-30 02:50 5.40190 170.33510 34869 ft 501 kts 30°
2026-04-30 02:51 5.46299 170.36927 34882 ft 503 kts 30°
2026-04-30 02:51 5.52378 170.40326 34872 ft 503 kts 30°
2026-04-30 02:52 5.58499 170.43750 34872 ft 503 kts 30°
2026-04-30 02:52 5.64585 170.47156 34881 ft 503 kts 29°
2026-04-30 02:53 5.70688 170.50572 34897 ft 502 kts 30°
2026-04-30 02:53 5.76793 170.53991 34906 ft 502 kts 30°
2026-04-30 02:54 5.82923 170.57422 34895 ft 505 kts 30°
2026-04-30 02:54 5.89114 170.60889 34906 ft 512 kts 30°
2026-04-30 02:55 5.95376 170.64401 34898 ft 518 kts 30°
2026-04-30 02:55 6.01702 170.67950 34900 ft 524 kts 30°
2026-04-30 02:56 6.08079 170.71524 34906 ft 523 kts 30°
2026-04-30 02:56 6.14384 170.75060 34894 ft 521 kts 30°
2026-04-30 02:57 6.20735 170.78622 34908 ft 524 kts 30°
2026-04-30 02:57 6.27080 170.82189 34907 ft 516 kts 29°
2026-04-30 02:58 6.33254 170.85648 34882 ft 506 kts 30°
2026-04-30 02:58 6.39491 170.89148 34913 ft 518 kts 30°
2026-04-30 02:59 6.45762 170.92670 34901 ft 519 kts 30°
2026-04-30 02:59 6.52078 170.96219 34902 ft 518 kts 30°
2026-04-30 03:00 6.58368 170.99754 34910 ft 518 kts 30°
2026-04-30 03:00 6.64644 171.03281 34898 ft 519 kts 30°
2026-04-30 03:01 6.70928 171.06815 34906 ft 518 kts 30°
2026-04-30 03:01 6.77223 171.10355 34907 ft 518 kts 30°
2026-04-30 03:02 6.83508 171.13891 34897 ft 514 kts 30°
2026-04-30 03:02 6.89745 171.17402 34909 ft 511 kts 30°
2026-04-30 03:03 6.95941 171.20890 34903 ft 509 kts 30°
2026-04-30 03:03 7.05303 171.25963 34866 ft 511 kts 23°
2026-04-30 03:04 7.12174 171.27841 34912 ft 513 kts 12°
2026-04-30 03:04 7.19139 171.29152 34881 ft 512 kts 11°
2026-04-30 03:05 7.26173 171.30406 34868 ft 512 kts 11°
2026-04-30 03:05 7.33191 171.31682 34880 ft 513 kts 11°
2026-04-30 03:06 7.40230 171.32978 34874 ft 516 kts 11°
2026-04-30 03:06 7.47292 171.34283 34871 ft 515 kts 11°
2026-04-30 03:07 7.54308 171.35578 34881 ft 515 kts 11°
2026-04-30 03:07 7.61372 171.36882 34870 ft 515 kts 11°
2026-04-30 03:08 7.68429 171.38186 34876 ft 515 kts 11°
2026-04-30 03:08 7.75500 171.39492 34879 ft 516 kts 11°
2026-04-30 03:09 7.82534 171.40794 34868 ft 516 kts 11°
2026-04-30 03:09 7.89618 171.42103 34881 ft 518 kts 11°
2026-04-30 03:10 7.96691 171.43411 34873 ft 517 kts 11°
2026-04-30 03:10 8.03738 171.44714 34871 ft 517 kts 11°
2026-04-30 03:11 8.10841 171.46029 34881 ft 517 kts 11°
2026-04-30 03:11 8.17935 171.47342 34869 ft 517 kts 11°
2026-04-30 03:12 8.24981 171.48647 34879 ft 517 kts 11°
2026-04-30 03:12 8.32029 171.49952 34869 ft 514 kts 11°
2026-04-30 03:13 8.39099 171.51263 34878 ft 518 kts 11°
2026-04-30 03:13 8.46151 171.52571 34875 ft 517 kts 11°
2026-04-30 03:14 8.53228 171.53883 34870 ft 517 kts 11°
2026-04-30 03:14 8.60318 171.55199 34882 ft 517 kts 11°
2026-04-30 03:15 8.67391 171.56512 34869 ft 517 kts 11°
2026-04-30 03:15 8.74479 171.57828 34876 ft 517 kts 11°
2026-04-30 03:16 8.81559 171.59144 34878 ft 517 kts 11°
2026-04-30 03:16 8.88603 171.60453 34868 ft 517 kts 11°
2026-04-30 03:17 8.95681 171.61768 34881 ft 517 kts 11°
2026-04-30 03:17 9.02757 171.63085 34873 ft 517 kts 11°
2026-04-30 03:18 9.09842 171.64403 34872 ft 517 kts 11°
2026-04-30 03:18 9.16935 171.65723 34881 ft 517 kts 11°
2026-04-30 03:19 9.24009 171.67041 34868 ft 517 kts 11°
2026-04-30 03:19 9.29897 171.68137 34875 ft 517 kts 11°
2026-04-30 03:20 9.36990 171.69459 34879 ft 517 kts 11°
2026-04-30 03:20 9.44075 171.70780 34868 ft 517 kts 11°
2026-04-30 03:21 9.51118 171.72093 34880 ft 517 kts 11°
2026-04-30 03:21 9.58191 171.73414 34873 ft 517 kts 11°
2026-04-30 03:22 9.65288 171.74738 34871 ft 517 kts 11°
2026-04-30 03:22 9.72329 171.76053 34881 ft 517 kts 11°
2026-04-30 03:23 9.79426 171.77379 34869 ft 517 kts 11°
2026-04-30 03:23 9.86506 171.78702 34877 ft 517 kts 11°
2026-04-30 03:24 9.93599 171.80028 34877 ft 517 kts 11°
2026-04-30 03:24 10.00648 171.81347 34868 ft 517 kts 11°
2026-04-30 03:25 10.07722 171.82671 34881 ft 517 kts 11°
2026-04-30 03:25 10.14806 171.83998 34871 ft 517 kts 11°
2026-04-30 03:26 10.21901 171.85326 34873 ft 517 kts 11°
2026-04-30 03:26 10.28974 171.86652 34881 ft 517 kts 11°
2026-04-30 03:27 10.36054 171.87980 34868 ft 517 kts 11°
2026-04-30 03:27 10.43079 171.89297 34870 ft 508 kts 11°
2026-04-30 03:28 10.50110 171.90613 34888 ft 516 kts 11°
2026-04-30 03:28 10.57103 171.91930 34870 ft 512 kts 11°
2026-04-30 03:29 10.64084 171.93242 34873 ft 507 kts 11°
2026-04-30 03:29 10.71032 171.94549 34881 ft 507 kts 11°
2026-04-30 03:30 10.77985 171.95857 34869 ft 508 kts 10°
2026-04-30 03:30 10.84897 171.97157 34878 ft 509 kts
2026-04-30 03:31 10.91879 171.98468 34875 ft 510 kts 10°
2026-04-30 03:31 10.98862 171.99788 34870 ft 509 kts 10°
2026-04-30 03:32 11.05826 172.01140 34881 ft 509 kts 10°
2026-04-30 03:32 11.12795 172.02504 34872 ft 510 kts 10°
2026-04-30 03:33 11.19727 172.03866 34873 ft 509 kts 10°
2026-04-30 03:33 11.26690 172.05233 34881 ft 509 kts 10°
2026-04-30 03:34 11.33651 172.06601 34869 ft 510 kts 10°
2026-04-30 03:34 11.40621 172.07971 34877 ft 509 kts 10°
2026-04-30 03:35 11.47591 172.09341 34877 ft 510 kts 10°
2026-04-30 03:35 11.54528 172.10706 34870 ft 509 kts 10°
2026-04-30 03:36 11.61480 172.12075 34881 ft 509 kts 10°
2026-04-30 03:36 11.68452 172.13447 34872 ft 510 kts 10°
2026-04-30 03:37 11.75421 172.14821 34873 ft 509 kts 10°
2026-04-30 03:37 11.82383 172.16193 34881 ft 509 kts 10°
2026-04-30 03:38 11.89360 172.17569 34868 ft 511 kts 10°
2026-04-30 03:38 11.96283 172.18936 34877 ft 509 kts 10°
2026-04-30 03:39 12.03233 172.20308 34877 ft 510 kts 10°
2026-04-30 03:39 12.10217 172.21688 34869 ft 510 kts 10°
2026-04-30 03:40 12.17170 172.23062 34880 ft 509 kts 10°
2026-04-30 03:40 12.24128 172.24438 34873 ft 510 kts 10°
2026-04-30 03:41 12.31104 172.25819 34871 ft 509 kts 10°
2026-04-30 03:41 12.38043 172.27193 34883 ft 513 kts 10°
2026-04-30 03:42 12.45055 172.28581 34869 ft 512 kts 10°
2026-04-30 03:42 12.52013 172.29955 34874 ft 506 kts 11°
2026-04-30 03:43 12.58964 172.31341 34885 ft 511 kts 10°
2026-04-30 03:43 12.65966 172.32730 34873 ft 513 kts 10°
2026-04-30 03:44 12.72930 172.34111 34871 ft 511 kts 10°
2026-04-30 03:44 12.79916 172.35498 34881 ft 512 kts 10°
2026-04-30 03:45 12.86921 172.36889 34869 ft 512 kts 10°
2026-04-30 03:45 12.93932 172.38284 34876 ft 512 kts 10°
2026-04-30 03:46 13.00917 172.39674 34878 ft 512 kts 10°
2026-04-30 03:46 13.07876 172.41059 34869 ft 512 kts 10°
2026-04-30 03:47 13.14877 172.42454 34880 ft 511 kts 10°
2026-04-30 03:47 13.21883 172.43850 34872 ft 512 kts 10°
2026-04-30 03:48 13.28888 172.45248 34872 ft 512 kts 10°
2026-04-30 03:48 13.35859 172.46639 34881 ft 512 kts 10°
2026-04-30 03:49 13.42854 172.48035 34869 ft 512 kts 10°
2026-04-30 03:49 13.49857 172.49434 34877 ft 512 kts 10°
2026-04-30 03:50 13.56861 172.50834 34878 ft 512 kts 10°
2026-04-30 03:50 13.63802 172.52223 34868 ft 512 kts 10°
2026-04-30 03:51 13.70850 172.53634 34881 ft 512 kts 10°
2026-04-30 03:51 13.77759 172.55027 34871 ft 502 kts
2026-04-30 03:52 13.84597 172.56393 34873 ft 500 kts
2026-04-30 03:52 13.91456 172.57763 34881 ft 503 kts
2026-04-30 03:53 13.98332 172.59141 34868 ft 502 kts
2026-04-30 03:53 14.05184 172.60517 34878 ft 502 kts
2026-04-30 03:54 14.12059 172.61898 34876 ft 503 kts
2026-04-30 03:54 14.18877 172.63268 34869 ft 502 kts
2026-04-30 03:55 14.25741 172.64649 34881 ft 502 kts
2026-04-30 03:55 14.32590 172.66024 34870 ft 498 kts
2026-04-30 03:56 14.39389 172.67396 34874 ft 498 kts
2026-04-30 03:56 14.46197 172.68768 34880 ft 499 kts
2026-04-30 03:57 14.53022 172.70145 34868 ft 499 kts
2026-04-30 03:57 14.59844 172.71511 34880 ft 507 kts 11°
2026-04-30 03:58 14.66747 172.72921 34874 ft 500 kts
2026-04-30 03:58 14.73530 172.74290 34870 ft 496 kts
2026-04-30 03:59 14.80331 172.75659 34880 ft 501 kts 10°
2026-04-30 03:59 14.87232 172.77051 34870 ft 504 kts 10°
2026-04-30 04:00 14.94114 172.78447 34874 ft 502 kts 10°
2026-04-30 04:00 14.99810 172.79601 34882 ft 503 kts 10°
2026-04-30 04:01 15.06710 172.80999 34870 ft 504 kts 10°
2026-04-30 04:01 15.14707 172.82622 34878 ft 503 kts 10°
2026-04-30 04:02 15.21576 172.84015 34875 ft 503 kts 10°
2026-04-30 04:02 15.27295 172.85177 34869 ft 503 kts 10°
2026-04-30 04:03 15.34195 172.86580 34880 ft 506 kts 10°
2026-04-30 04:03 15.41102 172.87983 34874 ft 506 kts 10°
2026-04-30 04:04 15.48008 172.89388 34871 ft 505 kts 10°
2026-04-30 04:04 15.54890 172.90789 34881 ft 505 kts 10°
2026-04-30 04:05 15.61801 172.92196 34870 ft 507 kts 10°
2026-04-30 04:05 15.68728 172.93610 34875 ft 505 kts 10°
2026-04-30 04:06 15.75590 172.95009 34879 ft 506 kts 10°
2026-04-30 04:06 15.82518 172.96422 34869 ft 505 kts 10°
2026-04-30 04:07 15.89354 172.97819 34878 ft 503 kts 10°
2026-04-30 04:08 15.99680 172.99886 34865 ft 505 kts
2026-04-30 04:08 16.06656 173.00611 34874 ft 504 kts
2026-04-30 04:09 16.13659 173.01123 34870 ft 503 kts
2026-04-30 04:09 16.20641 173.01646 34880 ft 503 kts
2026-04-30 04:10 16.27592 173.02189 34871 ft 504 kts
2026-04-30 04:10 16.34575 173.02744 34873 ft 502 kts
2026-04-30 04:11 16.41558 173.03301 34881 ft 503 kts
2026-04-30 04:11 16.48553 173.03858 34868 ft 503 kts
2026-04-30 04:12 16.55515 173.04414 34877 ft 502 kts
2026-04-30 04:12 16.62496 173.04969 34876 ft 505 kts
2026-04-30 04:13 16.69513 173.05532 34867 ft 503 kts
2026-04-30 04:13 16.76448 173.06086 34877 ft 502 kts
2026-04-30 04:14 16.83419 173.06644 34876 ft 501 kts
2026-04-30 04:14 16.90374 173.07200 34869 ft 500 kts
2026-04-30 04:15 16.97310 173.07755 34882 ft 501 kts
2026-04-30 04:15 17.04230 173.08309 34870 ft 501 kts
2026-04-30 04:16 17.11178 173.08867 34874 ft 500 kts
2026-04-30 04:16 17.18135 173.09425 34880 ft 501 kts
2026-04-30 04:17 17.25085 173.09983 34869 ft 501 kts
2026-04-30 04:17 17.32030 173.10542 34879 ft 500 kts
2026-04-30 04:18 17.38936 173.11097 34875 ft 501 kts
2026-04-30 04:18 17.45910 173.11659 34870 ft 500 kts
2026-04-30 04:19 17.52841 173.12217 34881 ft 500 kts
2026-04-30 04:19 17.59805 173.12778 34871 ft 501 kts
2026-04-30 04:20 17.66747 173.13339 34873 ft 500 kts
2026-04-30 04:20 17.73700 173.13900 34881 ft 500 kts
2026-04-30 04:21 17.80662 173.14462 34869 ft 501 kts
2026-04-30 04:21 17.87543 173.15019 34876 ft 499 kts
2026-04-30 04:22 17.94484 173.15581 34877 ft 500 kts
2026-04-30 04:22 18.01423 173.16144 34867 ft 499 kts
2026-04-30 04:23 18.08353 173.16706 34880 ft 499 kts
2026-04-30 04:23 18.15251 173.17265 34874 ft 500 kts
2026-04-30 04:24 18.22193 173.17829 34871 ft 499 kts
2026-04-30 04:24 18.29129 173.18392 34881 ft 499 kts
2026-04-30 04:25 18.36052 173.18955 34868 ft 498 kts
2026-04-30 04:25 18.42964 173.19518 34877 ft 497 kts
2026-04-30 04:26 18.49822 173.20077 34878 ft 498 kts
2026-04-30 04:26 18.56730 173.20640 34867 ft 498 kts
2026-04-30 04:27 18.63662 173.21206 34880 ft 497 kts
2026-04-30 04:27 18.70553 173.21766 34868 ft 501 kts
2026-04-30 04:28 18.77568 173.22343 34881 ft 502 kts
2026-04-30 04:28 18.84505 173.22912 34866 ft 497 kts
2026-04-30 04:29 18.91367 173.23472 34882 ft 499 kts
2026-04-30 04:29 18.98311 173.24039 34872 ft 499 kts
2026-04-30 04:30 19.05246 173.24608 34873 ft 498 kts
2026-04-30 04:30 19.12112 173.25172 34881 ft 499 kts
2026-04-30 04:31 19.19045 173.25741 34868 ft 499 kts
2026-04-30 04:31 19.25971 173.26311 34877 ft 498 kts
2026-04-30 04:32 19.32849 173.26877 34877 ft 501 kts
2026-04-30 04:32 19.39799 173.27449 34867 ft 499 kts
2026-04-30 04:33 19.46723 173.28019 34880 ft 499 kts
2026-04-30 04:33 19.53659 173.28591 34872 ft 500 kts
2026-04-30 04:34 19.60555 173.29160 34871 ft 499 kts
2026-04-30 04:34 19.67525 173.29737 34882 ft 499 kts
2026-04-30 04:35 19.74418 173.30306 34870 ft 500 kts
2026-04-30 04:35 19.81345 173.30881 34875 ft 499 kts
2026-04-30 04:36 19.88211 173.32110 34889 ft 500 kts 11°
2026-04-30 04:36 19.94979 173.33872 34870 ft 502 kts 14°
2026-04-30 04:37 20.01707 173.35903 34874 ft 501 kts 15°
2026-04-30 04:37 20.08402 173.38020 34880 ft 502 kts 15°
2026-04-30 04:38 20.15109 173.40156 34869 ft 502 kts 15°
2026-04-30 04:38 20.21794 173.42287 34878 ft 501 kts 15°
2026-04-30 04:39 20.28455 173.44409 34875 ft 502 kts 15°
2026-04-30 04:39 20.35160 173.46547 34870 ft 503 kts 15°
2026-04-30 04:40 20.41870 173.48688 34881 ft 502 kts 15°
2026-04-30 04:40 20.48536 173.50816 34872 ft 503 kts 15°
2026-04-30 04:41 20.55247 173.52963 34872 ft 502 kts 15°
2026-04-30 04:41 20.61909 173.55095 34881 ft 502 kts 15°
2026-04-30 04:42 20.68614 173.57241 34869 ft 503 kts 15°
2026-04-30 04:42 20.75314 173.59386 34875 ft 503 kts 17°
2026-04-30 04:43 20.82075 173.61551 34880 ft 508 kts 17°
2026-04-30 04:43 20.88813 173.63732 34866 ft 503 kts 15°
2026-04-30 04:44 20.95537 173.65889 34879 ft 504 kts 15°
2026-04-30 04:44 21.02209 173.68031 34875 ft 504 kts 15°
2026-04-30 04:45 21.08938 173.70198 34870 ft 504 kts 15°
2026-04-30 04:45 21.15653 173.72363 34881 ft 504 kts 15°
2026-04-30 04:46 21.22375 173.74531 34870 ft 505 kts 15°
2026-04-30 04:46 21.29097 173.76703 34875 ft 504 kts 15°
2026-04-30 04:47 21.35806 173.78873 34878 ft 502 kts 15°
2026-04-30 04:47 21.42473 173.81030 34869 ft 504 kts 15°
2026-04-30 04:48 21.48064 173.82841 34878 ft 503 kts 15°
2026-04-30 04:48 21.54766 173.85013 34876 ft 503 kts 15°
2026-04-30 04:49 21.61474 173.87190 34870 ft 503 kts 15°
2026-04-30 04:49 21.68176 173.89367 34881 ft 503 kts 15°
2026-04-30 04:50 21.74847 173.91536 34872 ft 504 kts 15°
2026-04-30 04:50 21.81556 173.93720 34872 ft 504 kts 15°
2026-04-30 04:51 21.88285 173.95912 34881 ft 504 kts 15°
2026-04-30 04:51 21.95021 173.98108 34868 ft 504 kts 15°
2026-04-30 04:52 22.01732 174.00299 34878 ft 504 kts 15°
2026-04-30 04:52 22.08403 174.02478 34876 ft 504 kts 15°
2026-04-30 04:53 22.15128 174.04678 34869 ft 504 kts 15°
2026-04-30 04:53 22.21835 174.06874 34881 ft 504 kts 15°
2026-04-30 04:54 22.28555 174.09075 34872 ft 505 kts 15°
2026-04-30 04:54 22.35307 174.11291 34875 ft 508 kts 15°
2026-04-30 04:55 22.42082 174.13516 34879 ft 508 kts 15°
2026-04-30 04:55 22.48850 174.15740 34869 ft 508 kts 15°
2026-04-30 04:56 22.55578 174.17954 34880 ft 507 kts 15°
2026-04-30 04:56 22.62330 174.20178 34874 ft 508 kts 15°
2026-04-30 04:57 22.69098 174.22410 34871 ft 508 kts 15°
2026-04-30 04:57 22.75862 174.24639 34883 ft 507 kts 17°
2026-04-30 04:58 22.82609 174.26860 34868 ft 507 kts 17°
2026-04-30 04:58 22.89371 174.29116 34877 ft 508 kts 15°
2026-04-30 04:59 22.96133 174.31351 34877 ft 508 kts 15°
2026-04-30 04:59 23.02867 174.33579 34868 ft 507 kts 15°
2026-04-30 05:00 23.09635 174.35823 34882 ft 508 kts 15°
2026-04-30 05:00 23.16363 174.38058 34871 ft 508 kts 15°
2026-04-30 05:01 23.23131 174.40308 34874 ft 508 kts 15°
2026-04-30 05:01 23.29906 174.42564 34881 ft 506 kts 15°
2026-04-30 05:02 23.36626 174.44804 34867 ft 504 kts 15°
2026-04-30 05:02 23.43323 174.47037 34881 ft 506 kts 15°
2026-04-30 05:03 23.50061 174.49287 34873 ft 506 kts 15°
2026-04-30 05:03 23.56791 174.51537 34872 ft 505 kts 15°
2026-04-30 05:04 23.63478 174.53774 34881 ft 506 kts 15°
2026-04-30 05:04 23.70213 174.56030 34869 ft 505 kts 15°
2026-04-30 05:05 23.76946 174.58288 34877 ft 505 kts 15°
2026-04-30 05:05 23.83675 174.60547 34877 ft 506 kts 15°
2026-04-30 05:06 23.93772 174.63941 34875 ft 505 kts 15°
2026-04-30 05:06 24.00451 174.66190 34879 ft 506 kts 15°
2026-04-30 05:07 24.07179 174.68457 34868 ft 505 kts 15°
2026-04-30 05:07 24.13907 174.70726 34880 ft 505 kts 15°
2026-04-30 05:08 24.20629 174.72996 34873 ft 506 kts 15°
2026-04-30 05:08 24.27315 174.75257 34871 ft 505 kts 15°
2026-04-30 05:09 24.34047 174.77535 34881 ft 507 kts 15°
2026-04-30 05:09 24.40797 174.79821 34870 ft 508 kts 15°
2026-04-30 05:10 24.47543 174.82111 34874 ft 506 kts 15°
2026-04-30 05:10 24.54287 174.84401 34880 ft 507 kts 15°
2026-04-30 05:11 24.61033 174.86694 34869 ft 507 kts 15°
2026-04-30 05:11 24.67727 174.88973 34878 ft 506 kts 15°
2026-04-30 05:12 24.74472 174.91271 34876 ft 507 kts 15°
2026-04-30 05:12 24.81208 174.93562 34870 ft 507 kts 15°
2026-04-30 05:13 24.87940 174.95872 34880 ft 506 kts 15°
2026-04-30 05:13 24.94683 174.98176 34873 ft 507 kts 15°
2026-04-30 05:14 25.01399 175.00569 34871 ft 507 kts 17°
2026-04-30 05:14 25.08046 175.03068 34881 ft 507 kts 17°
2026-04-30 05:15 25.14716 175.05614 34870 ft 507 kts 17°
2026-04-30 05:15 25.21392 175.08173 34875 ft 507 kts 17°
2026-04-30 05:16 25.28064 175.10731 34879 ft 507 kts 17°
2026-04-30 05:16 25.34695 175.13276 34868 ft 507 kts 17°
2026-04-30 05:17 25.41369 175.15840 34879 ft 507 kts 17°
2026-04-30 05:17 25.48046 175.18408 34874 ft 507 kts 17°
2026-04-30 05:18 25.54713 175.20975 34870 ft 507 kts 17°
2026-04-30 05:18 25.61358 175.23537 34881 ft 507 kts 17°
2026-04-30 05:19 25.68029 175.26112 34870 ft 507 kts 17°
2026-04-30 05:19 25.74702 175.28691 34876 ft 507 kts 17°
2026-04-30 05:20 25.81364 175.31268 34879 ft 507 kts 17°
2026-04-30 05:20 25.88045 175.33856 34868 ft 507 kts 17°
2026-04-30 05:21 25.94670 175.36426 34880 ft 507 kts 17°
2026-04-30 05:21 26.01355 175.39022 34874 ft 508 kts 17°
2026-04-30 05:22 26.08031 175.41618 34871 ft 507 kts 17°
2026-04-30 05:22 26.14688 175.44209 34881 ft 507 kts 17°
2026-04-30 05:23 26.21320 175.46793 34869 ft 507 kts 17°
2026-04-30 05:23 26.27978 175.49391 34876 ft 507 kts 17°
2026-04-30 05:24 26.34648 175.51997 34878 ft 507 kts 17°
2026-04-30 05:24 26.41314 175.54604 34868 ft 507 kts 17°
2026-04-30 05:25 26.47977 175.57214 34880 ft 507 kts 17°
2026-04-30 05:25 26.54640 175.59826 34873 ft 508 kts 17°
2026-04-30 05:26 26.61303 175.62442 34871 ft 507 kts 17°
2026-04-30 05:26 26.67927 175.65046 34881 ft 507 kts 17°
2026-04-30 05:27 26.74599 175.67672 34869 ft 507 kts 17°
2026-04-30 05:27 26.81259 175.70284 34877 ft 506 kts 19°
2026-04-30 05:28 26.87903 175.72922 34877 ft 508 kts 18°
2026-04-30 05:28 26.94580 175.75559 34868 ft 507 kts 17°
2026-04-30 05:29 27.01240 175.78190 34881 ft 507 kts 17°
2026-04-30 05:29 27.07894 175.80824 34872 ft 508 kts 17°
2026-04-30 05:30 27.14523 175.83453 34872 ft 507 kts 17°
2026-04-30 05:30 27.21176 175.86094 34881 ft 507 kts 17°
2026-04-30 05:31 27.27843 175.88744 34869 ft 507 kts 18°
2026-04-30 05:31 27.34504 175.91396 34877 ft 507 kts 17°
2026-04-30 05:32 27.41113 175.94030 34877 ft 507 kts 18°
2026-04-30 05:32 27.47779 175.96690 34869 ft 507 kts 18°
2026-04-30 05:33 27.54439 175.99352 34881 ft 507 kts 18°
2026-04-30 05:33 27.61064 176.02001 34872 ft 508 kts 18°
2026-04-30 05:34 27.67726 176.04671 34873 ft 507 kts 18°
2026-04-30 05:34 27.73259 176.06890 34881 ft 507 kts 18°
2026-04-30 05:35 27.79927 176.09567 34870 ft 508 kts 18°
2026-04-30 05:35 27.86586 176.12246 34875 ft 507 kts 18°
2026-04-30 05:36 27.93232 176.14921 34879 ft 507 kts 18°
2026-04-30 05:36 27.99907 176.17612 34868 ft 507 kts 18°
2026-04-30 05:37 28.06506 176.20276 34880 ft 507 kts 18°
2026-04-30 05:37 28.13174 176.22971 34874 ft 508 kts 18°
2026-04-30 05:38 28.19818 176.25660 34871 ft 507 kts 18°
2026-04-30 05:38 28.26469 176.28356 34881 ft 507 kts 18°
2026-04-30 05:39 28.33115 176.31052 34869 ft 507 kts 18°
2026-04-30 05:39 28.39733 176.33742 34876 ft 507 kts 18°
2026-04-30 05:40 28.46378 176.36445 34878 ft 507 kts 18°
2026-04-30 05:40 28.53045 176.39162 34868 ft 507 kts 18°
2026-04-30 05:41 28.59692 176.41874 34880 ft 507 kts 18°
2026-04-30 05:41 28.66336 176.44588 34873 ft 508 kts 18°
2026-04-30 05:42 28.72988 176.47309 34871 ft 507 kts 18°
2026-04-30 05:42 28.79593 176.50004 34882 ft 507 kts 20°
2026-04-30 05:43 28.86277 176.52755 34869 ft 507 kts 18°
2026-04-30 05:43 28.92884 176.55478 34878 ft 507 kts 18°
2026-04-30 05:44 28.99528 176.58205 34876 ft 508 kts 18°
2026-04-30 05:44 29.06174 176.60940 34869 ft 507 kts 18°
2026-04-30 05:45 29.12827 176.63684 34881 ft 507 kts 18°
2026-04-30 05:45 29.19478 176.66430 34871 ft 508 kts 18°
2026-04-30 05:46 29.26117 176.69176 34873 ft 507 kts 18°
2026-04-30 05:46 29.32764 176.71929 34881 ft 507 kts 18°
2026-04-30 05:47 29.39404 176.74683 34868 ft 507 kts 18°
2026-04-30 05:47 29.46013 176.77428 34878 ft 507 kts 18°
2026-04-30 05:48 29.52650 176.80188 34876 ft 508 kts 18°
2026-04-30 05:48 29.59304 176.82959 34869 ft 507 kts 18°
2026-04-30 05:49 29.65950 176.85731 34881 ft 507 kts 18°
2026-04-30 05:49 29.72547 176.88485 34871 ft 508 kts 18°
2026-04-30 05:50 29.79191 176.91265 34874 ft 507 kts 18°
2026-04-30 05:50 29.85828 176.94044 34880 ft 507 kts 18°
2026-04-30 05:51 29.92473 176.96831 34868 ft 508 kts 18°
2026-04-30 05:51 29.99012 176.99772 34880 ft 508 kts 21°
2026-04-30 05:52 30.05462 177.03145 34874 ft 509 kts 23°
2026-04-30 05:52 30.11853 177.06688 34871 ft 509 kts 24°
2026-04-30 05:53 30.18231 177.10295 34881 ft 509 kts 24°
2026-04-30 05:53 30.24593 177.13906 34870 ft 509 kts 24°
2026-04-30 05:54 30.30966 177.17528 34876 ft 509 kts 24°
2026-04-30 05:54 30.37323 177.21144 34879 ft 509 kts 24°
2026-04-30 05:55 30.43666 177.24756 34868 ft 509 kts 24°
2026-04-30 05:55 30.50018 177.28380 34880 ft 509 kts 24°
2026-04-30 05:56 30.56396 177.32023 34873 ft 510 kts 24°
2026-04-30 05:56 30.62758 177.35663 34871 ft 509 kts 24°
2026-04-30 05:57 30.69071 177.39280 34881 ft 509 kts 24°
2026-04-30 05:57 30.75427 177.42916 34871 ft 507 kts 26°
2026-04-30 05:58 30.81743 177.46554 34871 ft 508 kts 24°
2026-04-30 05:58 30.88109 177.50227 34881 ft 510 kts 24°
2026-04-30 05:59 30.94464 177.53884 34868 ft 509 kts 24°
2026-04-30 05:59 31.00834 177.57558 34878 ft 509 kts 24°
2026-04-30 06:00 31.07192 177.61232 34876 ft 510 kts 24°
2026-04-30 06:00 31.13500 177.64885 34869 ft 509 kts 24°
2026-04-30 06:01 31.19864 177.68575 34881 ft 509 kts 24°
2026-04-30 06:01 31.26224 177.72267 34871 ft 510 kts 24°
2026-04-30 06:02 31.32586 177.75968 34874 ft 509 kts 24°
2026-04-30 06:02 31.38898 177.79644 34880 ft 509 kts 24°
2026-04-30 06:03 31.45255 177.83352 34868 ft 509 kts 24°
2026-04-30 06:03 31.51592 177.87055 34879 ft 509 kts 24°
2026-04-30 06:04 31.57946 177.90772 34875 ft 510 kts 24°
2026-04-30 06:05 31.67421 177.96327 34877 ft 509 kts 24°
2026-04-30 06:05 31.73808 178.00077 34877 ft 510 kts 25°
2026-04-30 06:06 31.80118 178.03790 34869 ft 509 kts 24°
2026-04-30 06:06 31.86471 178.07532 34881 ft 509 kts 25°
2026-04-30 06:07 31.92812 178.11274 34872 ft 510 kts 25°
2026-04-30 06:07 31.99108 178.14995 34873 ft 509 kts 25°
2026-04-30 06:08 32.05441 178.18743 34881 ft 510 kts 25°
2026-04-30 06:08 32.11781 178.22501 34868 ft 510 kts 25°
2026-04-30 06:09 32.18107 178.26258 34878 ft 509 kts 25°
2026-04-30 06:09 32.24444 178.30026 34876 ft 510 kts 25°
2026-04-30 06:10 32.30782 178.33802 34869 ft 509 kts 25°
2026-04-30 06:10 32.37085 178.37562 34881 ft 509 kts 25°
2026-04-30 06:11 32.43415 178.41343 34871 ft 510 kts 25°
2026-04-30 06:11 32.49751 178.45135 34874 ft 509 kts 25°
2026-04-30 06:12 32.56074 178.48925 34880 ft 510 kts 25°
2026-04-30 06:12 32.62377 178.52709 34868 ft 509 kts 25°
2026-04-30 06:13 32.68688 178.56504 34877 ft 509 kts 25°
2026-04-30 06:13 32.75020 178.60318 34877 ft 510 kts 25°
2026-04-30 06:14 32.81346 178.64134 34868 ft 509 kts 25°
2026-04-30 06:14 32.87684 178.67963 34881 ft 509 kts 25°
2026-04-30 06:15 32.93966 178.71763 34872 ft 510 kts 25°
2026-04-30 06:15 33.00298 178.75602 34872 ft 509 kts 25°
2026-04-30 06:16 33.06625 178.79443 34881 ft 510 kts 25°
2026-04-30 06:16 33.11886 178.82642 34870 ft 510 kts 25°
2026-04-30 06:17 33.19238 178.87120 34878 ft 509 kts 25°
2026-04-30 06:17 33.25563 178.90978 34877 ft 510 kts 25°
2026-04-30 06:18 33.30816 178.94188 34868 ft 510 kts 25°
2026-04-30 06:18 33.37136 178.98056 34880 ft 509 kts 25°
2026-04-30 06:19 33.43455 179.01928 34874 ft 510 kts 25°
2026-04-30 06:19 33.49755 179.05797 34871 ft 509 kts 25°
2026-04-30 06:20 33.56041 179.09663 34881 ft 510 kts 25°
2026-04-30 06:20 33.62393 179.13574 34869 ft 510 kts 25°
2026-04-30 06:21 33.68664 179.17444 34876 ft 509 kts 25°
2026-04-30 06:21 33.74965 179.21338 34878 ft 510 kts 25°
2026-04-30 06:22 33.81286 179.25251 34868 ft 510 kts 25°
2026-04-30 06:22 33.87569 179.29148 34880 ft 510 kts 25°
2026-04-30 06:23 33.93865 179.33058 34873 ft 510 kts 25°
2026-04-30 06:23 34.00197 179.36997 34872 ft 509 kts 25°
2026-04-30 06:24 34.06460 179.40900 34881 ft 510 kts 25°
2026-04-30 06:24 34.12770 179.44839 34869 ft 510 kts 25°
2026-04-30 06:25 34.19074 179.48782 34877 ft 509 kts 25°
2026-04-30 06:25 34.25374 179.52727 34877 ft 510 kts 25°
2026-04-30 06:26 34.31630 179.56653 34869 ft 510 kts 25°
2026-04-30 06:26 34.37938 179.60618 34881 ft 510 kts 25°
2026-04-30 06:27 34.44237 179.64583 34872 ft 510 kts 25°
2026-04-30 06:27 34.50536 179.68556 34873 ft 509 kts 25°
2026-04-30 06:28 34.56819 179.72513 34878 ft 507 kts 26°
2026-04-30 06:28 34.63059 179.76478 34870 ft 510 kts 25°
2026-04-30 06:29 34.69367 179.80474 34881 ft 510 kts 25°
2026-04-30 06:29 34.75648 179.84460 34871 ft 510 kts 25°
2026-04-30 06:30 34.81937 179.88460 34874 ft 510 kts 25°
2026-04-30 06:30 34.88189 179.92444 34880 ft 510 kts 25°
2026-04-30 06:31 34.94356 179.96380 34868 ft 510 kts 26°
2026-04-30 06:31 34.98062 179.98749 34880 ft 510 kts 25°
2026-04-30 06:32 35.04629 -179.98096 34890 ft 506 kts 16°
2026-04-30 06:32 35.11405 -179.95627 34870 ft 507 kts 14°
2026-04-30 06:33 35.18161 -179.93180 34873 ft 506 kts 15°
2026-04-30 06:33 35.24864 -179.90693 34880 ft 507 kts 15°
2026-04-30 06:34 35.31607 -179.88162 34868 ft 507 kts 15°
2026-04-30 06:34 35.38373 -179.85611 34878 ft 506 kts 15°
2026-04-30 06:35 35.45118 -179.83066 34876 ft 507 kts 15°
2026-04-30 06:35 35.51871 -179.80513 34869 ft 506 kts 15°
2026-04-30 06:36 35.58569 -179.77976 34881 ft 507 kts 15°
2026-04-30 06:36 35.65315 -179.75417 34871 ft 507 kts 15°
2026-04-30 06:37 35.72052 -179.72856 34874 ft 506 kts 15°
2026-04-30 06:37 35.78755 -179.70305 34880 ft 507 kts 15°
2026-04-30 06:38 35.85492 -179.67736 34868 ft 507 kts 15°
2026-04-30 06:38 35.92241 -179.65157 34879 ft 506 kts 15°
2026-04-30 06:39 35.98975 -179.62580 34875 ft 507 kts 15°
2026-04-30 06:39 36.05712 -179.59996 34870 ft 506 kts 15°
2026-04-30 06:40 36.12441 -179.57412 34881 ft 507 kts 15°
2026-04-30 06:40 36.19146 -179.54832 34871 ft 507 kts 15°
2026-04-30 06:41 36.25886 -179.52233 34874 ft 506 kts 15°
2026-04-30 06:41 36.32622 -179.49632 34880 ft 507 kts 15°
2026-04-30 06:42 36.39362 -179.47025 34868 ft 507 kts 15°
2026-04-30 06:42 36.46060 -179.44428 34879 ft 506 kts 15°
2026-04-30 06:43 36.52801 -179.41825 34874 ft 507 kts 17°
2026-04-30 06:43 36.59533 -179.39174 34869 ft 508 kts 13°
2026-04-30 06:44 36.66379 -179.36498 34880 ft 525 kts 11°
2026-04-30 06:44 36.73454 -179.33759 34877 ft 532 kts 11°
2026-04-30 06:45 36.80473 -179.31016 34867 ft 532 kts 11°
2026-04-30 06:45 36.87554 -179.28240 34881 ft 533 kts 11°
2026-04-30 06:46 36.94641 -179.25458 34870 ft 532 kts 11°
2026-04-30 06:46 37.01726 -179.22669 34875 ft 533 kts 11°
2026-04-30 06:47 37.08802 -179.19880 34880 ft 533 kts 11°
2026-04-30 06:47 37.15870 -179.17087 34868 ft 533 kts 11°
2026-04-30 06:48 37.22942 -179.14288 34880 ft 533 kts 11°
2026-04-30 06:48 37.30017 -179.11482 34874 ft 533 kts 11°
2026-04-30 06:49 37.37039 -179.08687 34870 ft 531 kts 10°
2026-04-30 06:49 37.44082 -179.05886 34882 ft 532 kts 10°
2026-04-30 06:50 37.51149 -179.03068 34869 ft 532 kts 10°
2026-04-30 06:50 37.58208 -179.00246 34876 ft 532 kts 10°
2026-04-30 06:51 37.65235 -178.97432 34878 ft 532 kts 10°
2026-04-30 06:51 37.72287 -178.94602 34868 ft 532 kts 10°
2026-04-30 06:52 37.79339 -178.91766 34880 ft 532 kts 11°
2026-04-30 06:52 37.86415 -178.88914 34873 ft 532 kts 11°
2026-04-30 06:53 37.93485 -178.86059 34872 ft 532 kts 11°
2026-04-30 06:53 38.00486 -178.83227 34881 ft 532 kts 11°
2026-04-30 06:54 38.07555 -178.80362 34869 ft 532 kts 11°
2026-04-30 06:54 38.14618 -178.77492 34877 ft 532 kts 11°
2026-04-30 06:55 38.21671 -178.74621 34877 ft 532 kts 11°
2026-04-30 06:55 38.28694 -178.71757 34869 ft 532 kts 11°
2026-04-30 06:56 38.35752 -178.68872 34881 ft 532 kts 11°
2026-04-30 06:56 38.42811 -178.65981 34871 ft 532 kts 11°
2026-04-30 06:57 38.49839 -178.63096 34873 ft 532 kts 11°
2026-04-30 06:57 38.56895 -178.60195 34880 ft 532 kts 11°
2026-04-30 06:58 38.63877 -178.57374 34845 ft 514 kts 18°
2026-04-30 06:58 38.70605 -178.54516 34837 ft 513 kts 11°
2026-04-30 06:59 38.77515 -178.51671 34875 ft 530 kts 11°
2026-04-30 06:59 38.84566 -178.48765 34876 ft 533 kts 11°
2026-04-30 07:00 38.91580 -178.45848 34868 ft 532 kts 11°
2026-04-30 07:00 38.98630 -178.42910 34880 ft 532 kts 11°
2026-04-30 07:01 39.05677 -178.39970 34871 ft 532 kts 11°
2026-04-30 07:01 39.12730 -178.37021 34873 ft 532 kts 11°
2026-04-30 07:02 39.18574 -178.34573 34881 ft 532 kts 11°
2026-04-30 07:02 39.25631 -178.31611 34869 ft 532 kts 11°
2026-04-30 07:03 39.32692 -178.28642 34876 ft 532 kts 11°
2026-04-30 07:03 39.39736 -178.25673 34878 ft 533 kts 11°
2026-04-30 07:04 39.46744 -178.22713 34868 ft 532 kts 11°
2026-04-30 07:04 39.53795 -178.19728 34880 ft 532 kts 11°
2026-04-30 07:05 39.64357 -178.15246 34868 ft 532 kts 11°
2026-04-30 07:05 39.71410 -178.12244 34879 ft 532 kts 11°
2026-04-30 07:06 39.78428 -178.09251 34875 ft 533 kts 11°
2026-04-30 07:06 39.85444 -178.06253 34870 ft 532 kts 11°
2026-04-30 07:07 39.92480 -178.03239 34881 ft 533 kts 11°
2026-04-30 07:07 39.99496 -178.00039 34871 ft 536 kts 14°
2026-04-30 07:08 40.06441 -177.96436 34873 ft 537 kts 15°
2026-04-30 07:08 40.13351 -177.92659 34880 ft 538 kts 16°
2026-04-30 07:09 40.20245 -177.88836 34868 ft 538 kts 16°
2026-04-30 07:09 40.27144 -177.85002 34878 ft 538 kts 16°
2026-04-30 07:10 40.34037 -177.81169 34876 ft 538 kts 16°
2026-04-30 07:10 40.40892 -177.77351 34869 ft 538 kts 16°
2026-04-30 07:11 40.47788 -177.73502 34881 ft 538 kts 16°
2026-04-30 07:11 40.54688 -177.69641 34871 ft 538 kts 16°
2026-04-30 07:12 40.61546 -177.65795 34874 ft 538 kts 16°
2026-04-30 07:12 40.68450 -177.61928 34922 ft 535 kts 22°
2026-04-30 07:13 40.71827 -177.60048 34907 ft 522 kts 17°
2026-04-30 07:13 40.75158 -177.58140 34872 ft 525 kts 16°
2026-04-30 07:13 40.81994 -177.54286 34879 ft 539 kts 16°
2026-04-30 07:14 40.88894 -177.50385 34867 ft 538 kts 16°
2026-04-30 07:14 40.95778 -177.46478 34879 ft 538 kts 16°
2026-04-30 07:15 41.02663 -177.42564 34874 ft 538 kts 16°
2026-04-30 07:15 41.09550 -177.38640 34870 ft 538 kts 16°
2026-04-30 07:16 41.16429 -177.34712 34881 ft 538 kts 16°
2026-04-30 07:16 41.23334 -177.30758 34870 ft 550 kts 15°
2026-04-30 07:17 41.30439 -177.26680 34879 ft 561 kts 13°
2026-04-30 07:18 41.41146 -177.20518 34866 ft 553 kts 14°
2026-04-30 07:18 41.48229 -177.16430 34878 ft 555 kts 13°
2026-04-30 07:19 41.55294 -177.12351 34876 ft 556 kts 13°
2026-04-30 07:19 41.62430 -177.08211 34869 ft 555 kts 13°
2026-04-30 07:20 41.69458 -177.04126 34881 ft 556 kts 13°
2026-04-30 07:20 41.76571 -176.99982 34871 ft 555 kts 14°
2026-04-30 07:21 41.83668 -176.95840 34875 ft 562 kts 13°
2026-04-30 07:21 41.90846 -176.91638 34878 ft 562 kts 13°
2026-04-30 07:22 42.01582 -176.85327 34875 ft 562 kts 13°
2026-04-30 07:22 42.08797 -176.81078 34879 ft 562 kts 13°
2026-04-30 07:23 42.15928 -176.76866 34868 ft 561 kts 14°
2026-04-30 07:23 42.23085 -176.72629 34881 ft 561 kts 14°
2026-04-30 07:24 42.30186 -176.68411 34871 ft 562 kts 13°
2026-04-30 07:24 42.37373 -176.64138 34874 ft 563 kts 13°
2026-04-30 07:25 42.44553 -176.59855 34880 ft 562 kts 13°
2026-04-30 07:25 42.51711 -176.55575 34868 ft 562 kts 13°
2026-04-30 07:26 42.58889 -176.51271 34879 ft 563 kts 13°
2026-04-30 07:26 42.66002 -176.46997 34875 ft 562 kts 14°
2026-04-30 07:27 42.73167 -176.42678 34870 ft 563 kts 14°
2026-04-30 07:27 42.80319 -176.38397 34997 ft 553 kts 22°
2026-04-30 07:28 42.83780 -176.36367 34913 ft 531 kts 24°
2026-04-30 07:28 42.87108 -176.34289 34481 ft 521 kts 14°
2026-04-30 07:28 42.90363 -176.32230 34660 ft 514 kts 13°
2026-04-30 07:28 42.93642 -176.30231 34813 ft 519 kts 12°
2026-04-30 07:29 43.00368 -176.26193 34880 ft 537 kts 13°
2026-04-30 07:29 43.07337 -176.21979 34888 ft 555 kts 13°
2026-04-30 07:30 43.14427 -176.17641 34873 ft 566 kts 14°
2026-04-30 07:30 43.18018 -176.15430 34867 ft 566 kts 14°
2026-04-30 07:31 43.25216 -176.10988 34875 ft 565 kts 14°
2026-04-30 07:31 43.32405 -176.06561 34877 ft 571 kts 13°
2026-04-30 07:32 43.39687 -176.02073 34868 ft 571 kts 13°
2026-04-30 07:32 43.46888 -175.97612 34876 ft 571 kts 13°
2026-04-30 07:33 43.54125 -175.93125 34878 ft 571 kts 13°
2026-04-30 07:33 43.61395 -175.88601 34868 ft 571 kts 13°
2026-04-30 07:34 43.68639 -175.84085 34881 ft 571 kts 13°
2026-04-30 07:34 43.75890 -175.79552 34872 ft 571 kts 14°
2026-04-30 07:35 43.83137 -175.75007 34873 ft 575 kts 13°
2026-04-30 07:35 43.90443 -175.70416 34880 ft 574 kts 13°
2026-04-30 07:36 43.97645 -175.65872 34868 ft 572 kts 13°
2026-04-30 07:36 44.04896 -175.61293 34881 ft 573 kts 13°
2026-04-30 07:37 44.12155 -175.56695 34873 ft 572 kts 14°
2026-04-30 07:37 44.19390 -175.52094 34872 ft 573 kts 13°
2026-04-30 07:38 44.26671 -175.47457 34881 ft 573 kts 13°
2026-04-30 07:38 44.33928 -175.42812 34868 ft 572 kts 13°
2026-04-30 07:39 44.41143 -175.38194 34879 ft 573 kts 13°
2026-04-30 07:39 44.48391 -175.33543 34875 ft 573 kts 13°
2026-04-30 07:40 44.55639 -175.28872 34869 ft 573 kts 13°
2026-04-30 07:40 44.62895 -175.24186 34882 ft 573 kts 13°
2026-04-30 07:41 44.70139 -175.19494 34870 ft 573 kts 13°
2026-04-30 07:41 44.77395 -175.14779 34877 ft 573 kts 13°
2026-04-30 07:42 44.84608 -175.10073 34876 ft 570 kts 12°
2026-04-30 07:42 44.91803 -175.05381 34869 ft 571 kts 13°
2026-04-30 07:42 44.95417 -175.02995 34827 ft 566 kts 25°
2026-04-30 07:43 44.98850 -175.00399 34777 ft 570 kts 17°
2026-04-30 07:43 45.05791 -174.94651 34871 ft 586 kts 20°
2026-04-30 07:44 45.12693 -174.88470 34874 ft 588 kts 22°
2026-04-30 07:44 45.18407 -174.83190 34867 ft 588 kts 22°
2026-04-30 07:45 45.25270 -174.76827 34880 ft 588 kts 22°
2026-04-30 07:45 45.32131 -174.70477 34872 ft 588 kts 22°
2026-04-30 07:46 45.38957 -174.64150 34873 ft 588 kts 22°
2026-04-30 07:46 45.45807 -174.57785 34880 ft 588 kts 22°
2026-04-30 07:47 45.52680 -174.51377 34868 ft 588 kts 22°
2026-04-30 07:47 45.59523 -174.44978 34878 ft 588 kts 22°
2026-04-30 07:48 45.66373 -174.38553 34876 ft 589 kts 22°
2026-04-30 07:48 45.73166 -174.32163 34869 ft 588 kts 22°
2026-04-30 07:49 45.80024 -174.25693 34881 ft 588 kts 22°
2026-04-30 07:49 45.86853 -174.19230 34871 ft 589 kts 22°
2026-04-30 07:50 45.93695 -174.12736 34874 ft 589 kts 22°
2026-04-30 07:50 46.00482 -174.06274 34880 ft 589 kts 22°
2026-04-30 07:51 46.07335 -173.99731 34868 ft 589 kts 22°
2026-04-30 07:51 46.14165 -173.93189 34879 ft 589 kts 22°
2026-04-30 07:52 46.21005 -173.86618 34875 ft 589 kts 23°
2026-04-30 07:52 46.27821 -173.80050 34870 ft 589 kts 23°
2026-04-30 07:53 46.34601 -173.73497 34881 ft 589 kts 23°
2026-04-30 07:53 46.41432 -173.66874 34870 ft 590 kts 23°
2026-04-30 07:54 46.48244 -173.60251 34875 ft 589 kts 23°
2026-04-30 07:54 46.55047 -173.53614 34879 ft 590 kts 23°
2026-04-30 07:55 46.61834 -173.46974 34868 ft 590 kts 23°
2026-04-30 07:55 46.68627 -173.40306 34880 ft 590 kts 23°
2026-04-30 07:56 46.75441 -173.33598 34874 ft 590 kts 23°
2026-04-30 07:56 46.82238 -173.26886 34871 ft 590 kts 23°
2026-04-30 07:57 46.89050 -173.20138 34881 ft 590 kts 23°
2026-04-30 07:57 46.95846 -173.13384 34869 ft 590 kts 23°
2026-04-30 07:58 47.02603 -173.06689 34867 ft 581 kts 24°
2026-04-30 07:58 47.09334 -172.99921 34863 ft 590 kts 24°
2026-04-30 07:59 47.16112 -172.93124 34879 ft 591 kts 24°
2026-04-30 07:59 47.22898 -172.86293 34873 ft 591 kts 24°
2026-04-30 08:00 47.33030 -172.76058 34879 ft 590 kts 24°
2026-04-30 08:00 47.39810 -172.69182 34875 ft 591 kts 24°
2026-04-30 08:01 47.46599 -172.62274 34870 ft 591 kts 24°
2026-04-30 08:01 47.53371 -172.55361 34881 ft 591 kts 24°
2026-04-30 08:02 47.63484 -172.44999 34868 ft 591 kts 24°
2026-04-30 08:03 47.76980 -172.31090 34872 ft 592 kts 24°
2026-04-30 08:04 47.83775 -172.24054 34873 ft 591 kts 24°
2026-04-30 08:04 47.90493 -172.17074 34881 ft 592 kts 24°
2026-04-30 08:05 47.97257 -172.10024 34868 ft 592 kts 24°
2026-04-30 08:05 48.03998 -172.02975 34878 ft 592 kts 24°
2026-04-30 08:06 48.10758 -171.95884 34876 ft 592 kts 24°
2026-04-30 08:06 48.17457 -171.88833 34869 ft 592 kts 24°
2026-04-30 08:07 48.24191 -171.81722 34881 ft 592 kts 25°
2026-04-30 08:07 48.30936 -171.74577 34871 ft 592 kts 25°
2026-04-30 08:08 48.37677 -171.67412 34874 ft 592 kts 25°
2026-04-30 08:08 48.44356 -171.60288 34880 ft 593 kts 25°
2026-04-30 08:09 48.51088 -171.53086 34868 ft 593 kts 25°
2026-04-30 08:09 48.57833 -171.45844 34879 ft 592 kts 25°
2026-04-30 08:10 48.64549 -171.38611 34875 ft 593 kts 25°
2026-04-30 08:10 48.71233 -171.31388 34870 ft 593 kts 25°
2026-04-30 08:11 48.77950 -171.24104 34881 ft 593 kts 25°
2026-04-30 08:11 48.84667 -171.16796 34870 ft 593 kts 25°
2026-04-30 08:12 48.91380 -171.09468 34875 ft 593 kts 25°
2026-04-30 08:12 48.98037 -171.02195 34881 ft 591 kts 24°
2026-04-30 08:13 49.04966 -170.95947 34831 ft 564 kts 22°
2026-04-30 08:13 49.08373 -170.93087 34822 ft 550 kts 17°
2026-04-30 08:13 49.11757 -170.90380 34842 ft 550 kts 18°
2026-04-30 08:14 49.18580 -170.85015 34872 ft 549 kts 21°
2026-04-30 08:14 49.25259 -170.79648 34876 ft 536 kts 23°
2026-04-30 08:15 49.31865 -170.74265 34876 ft 536 kts 23°
2026-04-30 08:15 49.38448 -170.68882 34870 ft 535 kts 23°
2026-04-30 08:16 49.45035 -170.63491 34882 ft 536 kts 23°
2026-04-30 08:16 49.51576 -170.58124 34869 ft 536 kts 23°
2026-04-30 08:17 49.58160 -170.52703 34876 ft 536 kts 23°
2026-04-30 08:17 49.64737 -170.47273 34878 ft 536 kts 23°
2026-04-30 08:18 49.71310 -170.41829 34868 ft 535 kts 23°
2026-04-30 08:18 49.77877 -170.36372 34883 ft 534 kts 24°
2026-04-30 08:19 49.84395 -170.30938 34870 ft 530 kts 24°
2026-04-30 08:19 49.90860 -170.25532 34876 ft 532 kts 24°
2026-04-30 08:20 49.97385 -170.20062 34877 ft 532 kts 24°
2026-04-30 08:20 50.03916 -170.14567 34868 ft 532 kts 24°
2026-04-30 08:21 50.10384 -170.09109 34881 ft 532 kts 24°
2026-04-30 08:21 50.16906 -170.03588 34872 ft 533 kts 24°
2026-04-30 08:22 50.23422 -169.98056 34873 ft 532 kts 24°
2026-04-30 08:22 50.29918 -169.92525 34883 ft 529 kts 25°
2026-04-30 08:23 50.36306 -169.87063 34867 ft 524 kts 25°
2026-04-30 08:23 50.42728 -169.81561 34881 ft 526 kts 25°
2026-04-30 08:24 50.49159 -169.76030 34872 ft 526 kts 25°
2026-04-30 08:24 50.55557 -169.70510 34873 ft 527 kts 25°
2026-04-30 08:25 50.61986 -169.64949 34880 ft 528 kts 24°
2026-04-30 08:25 50.68428 -169.59358 34868 ft 527 kts 25°
2026-04-30 08:26 50.74856 -169.53763 34879 ft 527 kts 25°
2026-04-30 08:26 50.81279 -169.48156 34877 ft 525 kts 25°
2026-04-30 08:27 50.87638 -169.42582 34868 ft 521 kts 25°
2026-04-30 08:27 50.93956 -169.37028 34882 ft 523 kts 25°
2026-04-30 08:28 51.00309 -169.31457 34874 ft 518 kts 28°
2026-04-30 08:28 51.05527 -169.26810 34859 ft 513 kts 26°
2026-04-30 08:29 51.11815 -169.21231 34882 ft 525 kts 26°
2026-04-30 08:29 51.18221 -169.15541 34871 ft 525 kts 26°
2026-04-30 08:30 51.24596 -169.09850 34873 ft 525 kts 26°
2026-04-30 08:30 51.30947 -169.04163 34880 ft 525 kts 26°
2026-04-30 08:31 51.37336 -168.98425 34868 ft 525 kts 26°
2026-04-30 08:31 51.43707 -168.92683 34879 ft 525 kts 26°
2026-04-30 08:32 51.50006 -168.86984 34630 ft 514 kts 26°
2026-04-30 08:32 51.53058 -168.84217 34428 ft 508 kts 26°
2026-04-30 08:32 51.56169 -168.81392 34334 ft 506 kts 26°
2026-04-30 08:33 51.62305 -168.75815 34323 ft 512 kts 26°
2026-04-30 08:33 51.68542 -168.70128 34312 ft 517 kts 26°
2026-04-30 08:34 51.74756 -168.64438 34311 ft 515 kts 26°
2026-04-30 08:34 51.80996 -168.58705 34321 ft 516 kts 26°
2026-04-30 08:35 51.87248 -168.52944 34308 ft 515 kts 26°
2026-04-30 08:35 51.93480 -168.47182 34316 ft 516 kts 26°
2026-04-30 08:36 51.99715 -168.41400 34317 ft 516 kts 26°
2026-04-30 08:36 52.05913 -168.35634 34307 ft 515 kts 26°
2026-04-30 08:37 52.12151 -168.29811 34320 ft 516 kts 26°
2026-04-30 08:37 52.18375 -168.23984 34311 ft 516 kts 27°
2026-04-30 08:38 52.24589 -168.18147 34312 ft 518 kts 27°
2026-04-30 08:38 52.30864 -168.12231 34319 ft 519 kts 27°
2026-04-30 08:39 52.37070 -168.06362 34307 ft 517 kts 27°
2026-04-30 08:39 52.43345 -168.00406 34319 ft 518 kts 27°
2026-04-30 08:40 52.49542 -167.94508 34313 ft 518 kts 27°
2026-04-30 08:40 52.55781 -167.88549 34309 ft 517 kts 27°
2026-04-30 08:41 52.62020 -167.82569 34321 ft 519 kts 27°
2026-04-30 08:41 52.68254 -167.76576 34308 ft 518 kts 27°
2026-04-30 08:42 52.74439 -167.70611 34314 ft 520 kts 27°
2026-04-30 08:42 52.80705 -167.64548 34318 ft 521 kts 28°
2026-04-30 08:43 52.86950 -167.58492 34359 ft 511 kts 29°
2026-04-30 08:43 52.89960 -167.55569 34002 ft 494 kts 30°
2026-04-30 08:43 52.92862 -167.52730 33999 ft 470 kts 28°
2026-04-30 08:43 52.95646 -167.49984 34152 ft 468 kts 27°
2026-04-30 08:44 52.98477 -167.47214 34293 ft 475 kts 27°
2026-04-30 08:44 53.04273 -167.41550 34323 ft 495 kts 27°
2026-04-30 08:45 53.10329 -167.35604 34317 ft 515 kts 28°
2026-04-30 08:45 53.16563 -167.29450 34309 ft 521 kts 28°
2026-04-30 08:46 53.22796 -167.23268 34310 ft 521 kts 28°
2026-04-30 08:46 53.28992 -167.17108 34319 ft 521 kts 28°
2026-04-30 08:47 53.35219 -167.10899 34307 ft 521 kts 28°
2026-04-30 08:47 53.41441 -167.04672 34316 ft 521 kts 28°
2026-04-30 08:48 53.47685 -166.98405 34316 ft 521 kts 28°
2026-04-30 08:48 53.53897 -166.92145 34307 ft 521 kts 28°
2026-04-30 08:49 53.60094 -166.85880 34320 ft 522 kts 28°
2026-04-30 08:49 53.66314 -166.79570 34310 ft 521 kts 28°
2026-04-30 08:50 53.72535 -166.73236 34313 ft 522 kts 28°
2026-04-30 08:50 53.78752 -166.66885 34319 ft 522 kts 28°
2026-04-30 08:51 53.84921 -166.60521 34300 ft 522 kts 30°
2026-04-30 08:51 53.90307 -166.52185 34327 ft 528 kts 46°
2026-04-30 08:52 53.95035 -166.42480 34314 ft 530 kts 51°
2026-04-30 08:52 53.99289 -166.32331 34308 ft 530 kts 54°
2026-04-30 08:53 54.03348 -166.21868 34319 ft 531 kts 55°
2026-04-30 08:53 54.07380 -166.11285 34309 ft 531 kts 56°
2026-04-30 08:54 54.11376 -166.00781 34313 ft 531 kts 56°
2026-04-30 08:54 54.15391 -165.90205 34319 ft 531 kts 56°
2026-04-30 08:55 54.19391 -165.79630 34307 ft 531 kts 56°
2026-04-30 08:55 54.23397 -165.68993 34319 ft 531 kts 56°
2026-04-30 08:56 54.27385 -165.58359 34312 ft 531 kts 56°
2026-04-30 08:56 54.31366 -165.47695 34310 ft 531 kts 56°
2026-04-30 08:57 54.35335 -165.37020 34320 ft 531 kts 56°
2026-04-30 08:57 54.39300 -165.26309 34308 ft 531 kts 56°
2026-04-30 08:58 54.43243 -165.15607 34319 ft 528 kts 56°
2026-04-30 08:58 54.47145 -165.04970 34311 ft 522 kts 56°
2026-04-30 08:59 54.51038 -164.94332 34316 ft 532 kts 56°
2026-04-30 08:59 54.54963 -164.83543 34314 ft 531 kts 56°
2026-04-30 09:00 54.58874 -164.72742 34309 ft 531 kts 57°
2026-04-30 09:00 54.62787 -164.61892 34320 ft 532 kts 57°
2026-04-30 09:01 54.66664 -164.51105 34311 ft 528 kts 57°
2026-04-30 09:01 54.70543 -164.40278 34321 ft 525 kts 59°
2026-04-30 09:02 54.76234 -164.24275 34315 ft 518 kts 60°
2026-04-30 09:02 54.79998 -164.13610 34327 ft 517 kts 60°
2026-04-30 09:03 54.83755 -164.02928 34335 ft 518 kts 60°
2026-04-30 09:03 54.87501 -163.92239 34331 ft 517 kts 60°
2026-04-30 09:04 54.91208 -163.81619 34343 ft 516 kts 60°
2026-04-30 09:04 54.94923 -163.70930 34347 ft 516 kts 61°
2026-04-30 09:05 54.98619 -163.60250 34355 ft 515 kts 61°
2026-04-30 09:05 55.02314 -163.49523 34357 ft 515 kts 61°
2026-04-30 09:06 55.05970 -163.38864 34359 ft 514 kts 61°
2026-04-30 09:06 55.09622 -163.28170 34373 ft 512 kts 61°
2026-04-30 09:07 55.13265 -163.17453 34381 ft 515 kts 61°
2026-04-30 09:07 55.16925 -163.06641 34368 ft 515 kts 61°
2026-04-30 09:08 55.20555 -162.95870 34376 ft 514 kts 61°
2026-04-30 09:08 55.24169 -162.85100 34379 ft 515 kts 61°
2026-04-30 09:09 55.28098 -162.74566 34313 ft 519 kts 51°
2026-04-30 09:09 55.33536 -162.66144 34400 ft 527 kts 39°
2026-04-30 09:10 55.39296 -162.58143 34375 ft 526 kts 40°
2026-04-30 09:10 55.43948 -162.51255 34373 ft 525 kts 41°
2026-04-30 09:11 55.49445 -162.42774 34387 ft 525 kts 42°
2026-04-30 09:11 55.54915 -162.34218 34396 ft 526 kts 43°
2026-04-30 09:12 55.60364 -162.25668 34393 ft 525 kts 43°
2026-04-30 09:12 55.65808 -162.17103 34406 ft 523 kts 43°
2026-04-30 09:13 55.71258 -162.08497 34420 ft 523 kts 43°
2026-04-30 09:13 55.76700 -161.99889 34423 ft 525 kts 43°
2026-04-30 09:14 55.82125 -161.91280 34421 ft 524 kts 43°
2026-04-30 09:14 55.87553 -161.82637 34443 ft 523 kts 43°
2026-04-30 09:15 55.92985 -161.73958 34451 ft 524 kts 43°
2026-04-30 09:15 55.98411 -161.65256 34448 ft 524 kts 43°
2026-04-30 09:16 56.03833 -161.56525 34465 ft 524 kts 43°
2026-04-30 09:16 56.09245 -161.47776 34461 ft 524 kts 43°
2026-04-30 09:17 56.14620 -161.39051 34459 ft 523 kts 43°
2026-04-30 09:17 56.20020 -161.30253 34460 ft 524 kts 43°
2026-04-30 09:18 56.25410 -161.21436 34480 ft 523 kts 43°
2026-04-30 09:18 56.30750 -161.12664 34523 ft 523 kts 43°
2026-04-30 09:19 56.36125 -161.03802 34559 ft 523 kts 43°
2026-04-30 09:19 56.41500 -160.94902 34579 ft 523 kts 43°
2026-04-30 09:20 56.46872 -160.85974 34593 ft 524 kts 44°
2026-04-30 09:20 56.52232 -160.77028 34595 ft 524 kts 44°
2026-04-30 09:21 56.57551 -160.68115 34601 ft 523 kts 44°
2026-04-30 09:21 56.62891 -160.59130 34602 ft 524 kts 44°
2026-04-30 09:22 56.68235 -160.50103 34591 ft 524 kts 44°
2026-04-30 09:22 56.73561 -160.41071 34608 ft 523 kts 44°
2026-04-30 09:23 56.78861 -160.32052 34607 ft 524 kts 44°
2026-04-30 09:23 56.84184 -160.22965 34602 ft 523 kts 44°
2026-04-30 09:24 56.89496 -160.13861 34628 ft 523 kts 44°
2026-04-30 09:24 56.94807 -160.04724 34643 ft 523 kts 44°
2026-04-30 09:25 57.00110 -159.95567 34637 ft 524 kts 44°
2026-04-30 09:25 57.05409 -159.86377 34635 ft 523 kts 44°
2026-04-30 09:26 57.10664 -159.77226 34645 ft 523 kts 44°
2026-04-30 09:26 57.15949 -159.67985 34633 ft 524 kts 44°
2026-04-30 09:27 57.21222 -159.58727 34640 ft 523 kts 45°
2026-04-30 09:27 57.26488 -159.49442 34642 ft 523 kts 45°
2026-04-30 09:28 57.31719 -159.40156 34630 ft 518 kts 44°
2026-04-30 09:28 57.36972 -159.30833 34645 ft 526 kts 43°
2026-04-30 09:29 57.42266 -159.21386 34637 ft 527 kts 43°
2026-04-30 09:29 57.47494 -159.12019 34640 ft 525 kts 44°
2026-04-30 09:30 57.52743 -159.02570 34658 ft 525 kts 44°
2026-04-30 09:30 57.58007 -158.93053 34667 ft 526 kts 44°
2026-04-30 09:31 57.63229 -158.83572 34653 ft 526 kts 44°
2026-04-30 09:31 57.68462 -158.74030 34660 ft 525 kts 44°
2026-04-30 09:32 57.73700 -158.64437 34677 ft 528 kts 44°
2026-04-30 09:32 57.78941 -158.54793 34668 ft 531 kts 44°
2026-04-30 09:33 57.84216 -158.45053 34677 ft 530 kts 44°
2026-04-30 09:33 57.89441 -158.35362 34691 ft 531 kts 44°
2026-04-30 09:34 57.94693 -158.25578 34689 ft 531 kts 44°
2026-04-30 09:34 57.99933 -158.15768 34697 ft 530 kts 44°
2026-04-30 09:35 58.05170 -158.05912 34700 ft 531 kts 44°
2026-04-30 09:35 58.10391 -157.96043 34719 ft 531 kts 44°
2026-04-30 09:36 58.15589 -157.86175 34712 ft 532 kts 44°
2026-04-30 09:36 58.20802 -157.76234 34719 ft 531 kts 44°
2026-04-30 09:37 58.26017 -157.66247 34734 ft 532 kts 45°
2026-04-30 09:37 58.31213 -157.56247 34742 ft 538 kts 44°
2026-04-30 09:38 58.36490 -157.46052 34760 ft 536 kts 44°
2026-04-30 09:38 58.41677 -157.35986 34778 ft 535 kts 44°
2026-04-30 09:39 58.46903 -157.25797 34793 ft 536 kts 45°
2026-04-30 09:39 58.52121 -157.15577 34804 ft 536 kts 45°
2026-04-30 09:40 58.57337 -157.05314 34803 ft 537 kts 45°
2026-04-30 09:40 58.62534 -156.95043 34813 ft 536 kts 45°
2026-04-30 09:41 58.67695 -156.84708 34815 ft 537 kts 46°
2026-04-30 09:41 58.72555 -156.73925 34808 ft 537 kts 49°
2026-04-30 09:42 58.77268 -156.62787 34819 ft 535 kts 51°
2026-04-30 09:42 58.81836 -156.51297 34812 ft 541 kts 52°
2026-04-30 09:43 58.86261 -156.39863 34811 ft 521 kts 53°
2026-04-30 09:43 58.90557 -156.28674 34816 ft 523 kts 53°
2026-04-30 09:44 58.94968 -156.17156 34830 ft 540 kts 53°
2026-04-30 09:44 58.99447 -156.05413 34825 ft 541 kts 53°
2026-04-30 09:45 59.03901 -155.93676 34848 ft 540 kts 53°
2026-04-30 09:45 59.08331 -155.81947 34867 ft 541 kts 53°
2026-04-30 09:46 59.12797 -155.70059 34883 ft 540 kts 53°
2026-04-30 09:46 59.17196 -155.58292 34897 ft 541 kts 53°
2026-04-30 09:47 59.21623 -155.46390 34907 ft 541 kts 53°
2026-04-30 09:47 59.26035 -155.34470 34914 ft 540 kts 53°
2026-04-30 09:48 59.30462 -155.22444 34925 ft 545 kts 53°
2026-04-30 09:48 59.34869 -155.10418 34923 ft 545 kts 53°
2026-04-30 09:49 59.39267 -154.98353 34937 ft 544 kts 54°
2026-04-30 09:49 59.43649 -154.86268 34935 ft 545 kts 54°
2026-04-30 09:50 59.48066 -154.74024 34929 ft 545 kts 54°
2026-04-30 09:50 59.52395 -154.61882 34941 ft 545 kts 54°
2026-04-30 09:51 59.56677 -154.49518 34929 ft 546 kts 55°
2026-04-30 09:51 59.60878 -154.37136 34934 ft 545 kts 56°
2026-04-30 09:52 59.65061 -154.24625 34939 ft 545 kts 56°
2026-04-30 09:52 59.69235 -154.12054 34927 ft 546 kts 56°
2026-04-30 09:53 59.73384 -153.99497 34938 ft 545 kts 56°
2026-04-30 09:53 59.77543 -153.86843 34934 ft 548 kts 56°
2026-04-30 09:54 59.81700 -153.74127 34928 ft 548 kts 57°
2026-04-30 09:54 59.85148 -153.63527 34939 ft 547 kts 57°
2026-04-30 09:55 59.89266 -153.50806 34932 ft 548 kts 57°
2026-04-30 09:55 59.94051 -153.35936 34950 ft 547 kts 57°
2026-04-30 09:56 59.97467 -153.25261 34946 ft 548 kts 57°
2026-04-30 09:56 60.01562 -153.12396 34961 ft 548 kts 57°
2026-04-30 09:57 60.05648 -152.99495 35000 ft 549 kts 57°
2026-04-30 09:57 60.09696 -152.86642 35027 ft 546 kts 57°
2026-04-30 09:58 60.13697 -152.73850 35079 ft 534 kts 57°
2026-04-30 09:58 60.17671 -152.61108 35042 ft 547 kts 57°
2026-04-30 09:59 60.21791 -152.47853 35036 ft 566 kts 56°
2026-04-30 09:59 60.27076 -152.36258 35022 ft 560 kts 37°
2026-04-30 10:00 60.37022 -152.23780 35069 ft 563 kts 29°
2026-04-30 10:01 60.46643 -152.10302 35052 ft 564 kts 34°
2026-04-30 10:02 60.56068 -151.95950 35060 ft 565 kts 34°
2026-04-30 10:02 60.62340 -151.86341 35051 ft 564 kts 34°
2026-04-30 10:03 60.68608 -151.76724 35063 ft 564 kts 34°
2026-04-30 10:03 60.74876 -151.67068 35053 ft 564 kts 35°
2026-04-30 10:04 60.81093 -151.57320 35041 ft 560 kts 38°
2026-04-30 10:04 60.86149 -151.45255 35077 ft 544 kts 54°
2026-04-30 10:04 60.88150 -151.38972 35061 ft 521 kts 57°
2026-04-30 10:05 60.89967 -151.32691 35037 ft 500 kts 60°
2026-04-30 10:05 60.91543 -151.26455 35031 ft 481 kts 64°
2026-04-30 10:05 60.92902 -151.20342 35028 ft 463 kts 67°
2026-04-30 10:05 60.94067 -151.14260 35024 ft 449 kts 70°
2026-04-30 10:06 60.95149 -151.08171 35039 ft 458 kts 71°
2026-04-30 10:06 60.97272 -150.95535 35067 ft 471 kts 73°
2026-04-30 10:07 60.99180 -150.82743 35050 ft 469 kts 76°
2026-04-30 10:07 61.00885 -150.69769 35061 ft 470 kts 77°
2026-04-30 10:08 61.02464 -150.56703 35053 ft 469 kts 78°
2026-04-30 10:08 61.04020 -150.43653 35039 ft 469 kts 75°
2026-04-30 10:08 61.05334 -150.37447 35006 ft 471 kts 62°
2026-04-30 10:09 61.07211 -150.31909 35044 ft 470 kts 50°
2026-04-30 10:09 61.09548 -150.27266 35051 ft 463 kts 37°
2026-04-30 10:09 61.12159 -150.23745 35037 ft 443 kts 25°
2026-04-30 10:09 61.15006 -150.21580 34943 ft 420 kts
2026-04-30 10:10 61.17787 -150.21383 35039 ft 390 kts 350°
2026-04-30 10:10 61.20387 -150.22156 35117 ft 372 kts 343°
2026-04-30 10:10 61.22934 -150.23242 34594 ft 375 kts 340°
2026-04-30 10:10 61.25472 -150.24594 34228 ft 375 kts 338°
2026-04-30 10:11 61.28000 -150.26024 33818 ft 377 kts 338°
2026-04-30 10:11 61.30502 -150.27447 33806 ft 366 kts 338°
2026-04-30 10:11 61.32931 -150.28823 34133 ft 363 kts 338°
2026-04-30 10:11 61.35392 -150.30215 34136 ft 376 kts 339°
2026-04-30 10:12 61.38008 -150.31376 34277 ft 381 kts 342°
2026-04-30 10:12 61.43210 -150.33450 34248 ft 383 kts 343°
2026-04-30 10:12 61.45828 -150.34476 34056 ft 382 kts 343°
2026-04-30 10:13 61.48430 -150.35495 33778 ft 380 kts 342°
2026-04-30 10:13 61.53494 -150.37467 33938 ft 362 kts 342°
2026-04-30 10:13 61.56023 -150.38465 33868 ft 375 kts 342°
2026-04-30 10:14 61.58603 -150.39488 33956 ft 378 kts 342°
2026-04-30 10:14 61.66353 -150.42536 33633 ft 377 kts 342°
2026-04-30 10:15 61.68927 -150.43545 33352 ft 375 kts 342°
2026-04-30 10:15 61.71457 -150.44531 33492 ft 360 kts 342°
2026-04-30 10:15 61.73928 -150.45497 33795 ft 364 kts 342°
2026-04-30 10:15 61.76459 -150.46505 33821 ft 375 kts 342°
2026-04-30 10:16 61.81653 -150.48575 33923 ft 382 kts 343°
2026-04-30 10:16 61.84264 -150.49605 33817 ft 380 kts 343°
2026-04-30 10:17 61.89442 -150.51643 33280 ft 378 kts 343°
2026-04-30 10:17 61.97030 -150.54631 33223 ft 372 kts 343°
2026-04-30 10:18 62.02147 -150.56656 33234 ft 373 kts 343°
2026-04-30 10:19 62.09809 -150.59689 33245 ft 372 kts 343°
2026-04-30 10:19 62.14922 -150.61713 33252 ft 374 kts 343°
2026-04-30 10:20 62.20045 -150.63743 33260 ft 374 kts 343°
2026-04-30 10:20 62.27686 -150.66774 33270 ft 374 kts 343°
2026-04-30 10:21 62.32826 -150.68816 33278 ft 375 kts 343°
2026-04-30 10:21 62.37945 -150.70849 33603 ft 369 kts 343°
2026-04-30 10:22 62.40421 -150.71826 34129 ft 366 kts 343°
2026-04-30 10:22 62.42977 -150.72851 34121 ft 379 kts 343°
2026-04-30 10:22 62.45596 -150.73902 34279 ft 385 kts 343°
2026-04-30 10:22 62.48233 -150.74958 34384 ft 388 kts 344°
2026-04-30 10:23 62.53546 -150.77075 34293 ft 388 kts 344°
2026-04-30 10:23 62.56204 -150.78132 34080 ft 386 kts 344°
2026-04-30 10:23 62.58841 -150.79181 33796 ft 384 kts 343°
2026-04-30 10:24 62.61449 -150.80214 33845 ft 371 kts 343°
2026-04-30 10:24 62.63974 -150.81213 34188 ft 371 kts 343°
2026-04-30 10:24 62.66552 -150.82249 34213 ft 382 kts 343°
2026-04-30 10:24 62.69184 -150.83308 34346 ft 386 kts 344°
2026-04-30 10:25 62.74501 -150.85436 34328 ft 388 kts 344°
2026-04-30 10:25 62.79701 -150.87515 34602 ft 376 kts 345°
2026-04-30 10:26 62.82296 -150.88554 34871 ft 381 kts 345°
2026-04-30 10:26 62.84923 -150.89610 35064 ft 387 kts 345°
2026-04-30 10:26 62.90282 -150.91764 35101 ft 391 kts 345°
2026-04-30 10:27 62.95638 -150.93910 35075 ft 391 kts 345°
2026-04-30 10:27 63.01000 -150.96061 35052 ft 391 kts 345°
2026-04-30 10:28 63.06303 -150.98201 35060 ft 378 kts 347°
2026-04-30 10:28 63.11530 -151.00291 34922 ft 389 kts 345°
2026-04-30 10:29 63.16873 -151.02443 34759 ft 390 kts 345°
2026-04-30 10:29 63.19546 -151.03518 34512 ft 389 kts 345°
2026-04-30 10:29 63.22197 -151.04584 34214 ft 387 kts 345°
2026-04-30 10:30 63.24818 -151.05632 34345 ft 372 kts 345°
2026-04-30 10:30 63.27382 -151.06662 34574 ft 378 kts 345°
2026-04-30 10:30 63.32633 -151.08796 34767 ft 390 kts 346°
2026-04-30 10:31 63.37976 -151.10955 34724 ft 390 kts 346°
2026-04-30 10:31 63.40645 -151.12032 34520 ft 389 kts 345°
2026-04-30 10:31 63.43304 -151.13105 34231 ft 388 kts 345°
2026-04-30 10:32 63.45962 -151.14176 34092 ft 380 kts 345°
2026-04-30 10:32 63.48519 -151.15203 34446 ft 373 kts 345°
2026-04-30 10:32 63.53754 -151.17330 34628 ft 388 kts 346°
2026-04-30 10:33 63.59099 -151.19498 34672 ft 390 kts 346°
2026-04-30 10:33 63.61766 -151.20578 34515 ft 389 kts 346°
2026-04-30 10:33 63.64438 -151.21660 34255 ft 388 kts 345°
2026-04-30 10:34 63.67053 -151.22719 33969 ft 386 kts 345°
2026-04-30 10:34 63.69652 -151.23767 34167 ft 370 kts 346°
2026-04-30 10:34 63.72202 -151.24801 34348 ft 378 kts 346°
2026-04-30 10:34 63.74820 -151.25869 34423 ft 385 kts 345°
2026-04-30 10:35 63.80119 -151.28036 34576 ft 385 kts 347°
2026-04-30 10:35 63.82762 -151.29115 34824 ft 387 kts 347°
2026-04-30 10:35 63.85441 -151.30207 34944 ft 392 kts 347°
2026-04-30 10:36 63.90803 -151.32390 34961 ft 391 kts 347°
2026-04-30 10:36 63.96139 -151.34565 34955 ft 390 kts 347°
2026-04-30 10:37 64.01484 -151.36745 34965 ft 390 kts 347°
2026-04-30 10:37 64.06841 -151.38932 34957 ft 391 kts 347°
2026-04-30 10:38 64.11287 -151.40750 34954 ft 390 kts 347°
2026-04-30 10:38 64.16648 -151.42942 34966 ft 391 kts 347°
2026-04-30 10:39 64.21999 -151.45133 34951 ft 391 kts 347°
2026-04-30 10:39 64.27353 -151.47327 34956 ft 391 kts 347°
2026-04-30 10:40 64.32732 -151.49543 34962 ft 393 kts 348°
2026-04-30 10:40 64.38120 -151.51755 34944 ft 393 kts 348°
2026-04-30 10:41 64.43529 -151.53978 34941 ft 393 kts 348°
2026-04-30 10:41 64.48876 -151.56178 34954 ft 393 kts 348°
2026-04-30 10:42 64.54272 -151.58400 34939 ft 393 kts 348°
2026-04-30 10:42 64.59667 -151.60624 34929 ft 393 kts 348°
2026-04-30 10:43 64.65012 -151.62833 34943 ft 389 kts 348°
2026-04-30 10:43 64.70369 -151.65047 34931 ft 392 kts 348°
2026-04-30 10:44 64.75767 -151.67274 34930 ft 393 kts 348°
2026-04-30 10:44 64.81204 -151.69528 34946 ft 397 kts 348°
2026-04-30 10:45 64.86672 -151.71794 34929 ft 398 kts 348°
2026-04-30 10:45 64.92090 -151.74043 34932 ft 397 kts 348°
2026-04-30 10:46 64.97550 -151.76310 34940 ft 398 kts 348°
2026-04-30 10:46 65.03012 -151.78580 34926 ft 398 kts 348°
2026-04-30 10:47 65.08469 -151.80852 34937 ft 397 kts 348°
2026-04-30 10:47 65.13895 -151.83112 34937 ft 398 kts 348°
2026-04-30 10:48 65.19354 -151.85388 34926 ft 398 kts 348°
2026-04-30 10:48 65.24810 -151.87666 34942 ft 397 kts 348°
2026-04-30 10:49 65.30265 -151.89946 34932 ft 398 kts 348°
2026-04-30 10:49 65.35732 -151.92233 34929 ft 398 kts 348°
2026-04-30 10:50 65.41181 -151.94516 34941 ft 398 kts 348°
2026-04-30 10:50 65.46620 -151.96796 34927 ft 398 kts 348°
2026-04-30 10:51 65.52083 -151.99089 34931 ft 397 kts 348°
2026-04-30 10:51 65.57514 -152.01371 34942 ft 396 kts 348°
2026-04-30 10:52 65.62957 -152.03661 34927 ft 397 kts 348°
2026-04-30 10:52 65.68366 -152.05939 34927 ft 396 kts 348°
2026-04-30 10:53 65.73805 -152.08233 34940 ft 396 kts 348°
2026-04-30 10:53 65.79255 -152.10533 34923 ft 397 kts 348°
2026-04-30 10:54 65.84690 -152.12831 34918 ft 396 kts 348°
2026-04-30 10:54 65.90094 -152.15118 34931 ft 396 kts 348°
2026-04-30 10:55 65.95531 -152.17421 34918 ft 397 kts 348°
2026-04-30 10:55 66.00966 -152.19728 34916 ft 394 kts 348°
2026-04-30 10:56 66.06389 -152.22030 34926 ft 397 kts 348°
2026-04-30 10:56 66.11834 -152.24345 34911 ft 396 kts 348°
2026-04-30 10:57 66.17273 -152.26660 34900 ft 396 kts 348°
2026-04-30 10:57 66.22703 -152.28975 34911 ft 396 kts 348°
2026-04-30 10:58 66.28093 -152.31277 34909 ft 389 kts 349°
2026-04-30 10:58 66.33420 -152.33551 34895 ft 390 kts 348°
2026-04-30 10:59 66.38849 -152.35871 34916 ft 397 kts 348°
2026-04-30 10:59 66.44288 -152.38200 34898 ft 396 kts 348°
2026-04-30 11:00 66.49701 -152.40521 34905 ft 396 kts 348°
2026-04-30 11:00 66.55171 -152.42870 34909 ft 397 kts 348°
2026-04-30 11:01 66.60586 -152.45197 34895 ft 396 kts 348°
2026-04-30 11:01 66.66014 -152.47534 34909 ft 396 kts 348°
2026-04-30 11:02 66.71458 -152.49879 34905 ft 397 kts 348°
2026-04-30 11:02 66.76900 -152.52228 34897 ft 396 kts 348°
2026-04-30 11:03 66.82309 -152.54564 34912 ft 396 kts 348°
2026-04-30 11:04 66.90477 -152.58098 34896 ft 396 kts 348°
2026-04-30 11:04 66.95909 -152.60453 34910 ft 396 kts 348°
2026-04-30 11:05 67.01362 -152.62819 34905 ft 397 kts 348°
2026-04-30 11:05 67.06806 -152.65186 34898 ft 396 kts 348°
2026-04-30 11:06 67.12260 -152.67559 34912 ft 397 kts 348°
2026-04-30 11:06 67.17668 -152.69915 34900 ft 397 kts 348°
2026-04-30 11:07 67.23116 -152.72292 34903 ft 395 kts 348°
2026-04-30 11:07 67.28554 -152.74668 34912 ft 397 kts 348°
2026-04-30 11:08 67.34009 -152.77054 34897 ft 395 kts 348°
2026-04-30 11:08 67.39395 -152.79413 34894 ft 395 kts 348°
2026-04-30 11:09 67.44838 -152.81800 34906 ft 396 kts 348°
2026-04-30 11:09 67.50229 -152.84168 34889 ft 395 kts 348°
2026-04-30 11:10 67.55673 -152.86562 34873 ft 395 kts 348°
2026-04-30 11:10 67.61102 -152.88953 34877 ft 395 kts 348°
2026-04-30 11:11 67.66529 -152.91347 34884 ft 396 kts 348°
2026-04-30 11:11 67.71932 -152.93733 34867 ft 395 kts 348°
2026-04-30 11:12 67.77350 -152.96129 34878 ft 395 kts 348°
2026-04-30 11:12 67.82782 -152.98535 34878 ft 396 kts 348°
2026-04-30 11:13 67.88217 -153.00946 34867 ft 395 kts 348°
2026-04-30 11:13 67.93610 -153.03342 34875 ft 395 kts 348°
2026-04-30 11:14 67.99057 -153.05765 34879 ft 396 kts 348°
2026-04-30 11:14 68.04457 -153.08171 34867 ft 395 kts 348°
2026-04-30 11:15 68.09893 -153.10597 34882 ft 394 kts 349°
2026-04-30 11:15 68.15320 -153.13022 34874 ft 396 kts 348°
2026-04-30 11:16 68.20747 -153.15451 34870 ft 395 kts 349°
2026-04-30 11:16 68.26181 -153.17886 34883 ft 395 kts 349°
2026-04-30 11:17 68.31615 -153.20325 34870 ft 395 kts 349°
2026-04-30 11:17 68.37010 -153.22751 34873 ft 394 kts 349°
2026-04-30 11:18 68.42446 -153.25198 34882 ft 396 kts 349°
2026-04-30 11:18 68.50572 -153.28868 34872 ft 388 kts 349°
2026-04-30 11:19 68.55884 -153.31270 34885 ft 389 kts 349°
2026-04-30 11:19 68.61225 -153.33688 34872 ft 388 kts 349°
2026-04-30 11:20 68.66516 -153.36086 34872 ft 389 kts 349°
2026-04-30 11:20 68.71863 -153.38514 34882 ft 389 kts 349°
2026-04-30 11:21 68.77202 -153.40941 34867 ft 389 kts 349°
2026-04-30 11:21 68.81647 -153.42965 34875 ft 390 kts 349°
2026-04-30 11:22 68.87014 -153.45413 34881 ft 390 kts 349°
2026-04-30 11:22 68.92358 -153.47854 34867 ft 389 kts 349°
2026-04-30 11:23 68.97710 -153.50302 34880 ft 390 kts 349°
2026-04-30 11:24 69.05737 -153.53983 34867 ft 389 kts 349°
2026-04-30 11:24 69.11051 -153.56424 34877 ft 390 kts 349°
2026-04-30 11:25 69.19082 -153.60121 34870 ft 389 kts 349°